<- Previous Day | Today | Next Day ->

All Data for 21 September 2021

 

Time A - D Temp A - D Dew Point A - D Humidity A - D Pressure A - D Wind A - D Wind Dir Gust A - D Rain Rate A - D Rain Total
01:10 13.6 12.3 92 1029.6 0.0 NE 2.2 0.0 0.0
01:22 13.5 12.2 92 1029.5 0.0 E 3.1 0.0 0.0
01:38 13.4 12.1 92 1029.6 0.0 NE 1.6 0.0 0.0
01:39 13.4 12.1 92 1029.5 0.0 NE 1.6 0.0 0.0
01:40 13.3 12.0 92 1029.3 0.0 NE 1.6 0.0 0.0
01:41 13.3 12.0 92 1029.5 0.0 NE 1.6 0.0 0.0
01:42 13.3 12.0 92 1029.4 0.0 NE 1.6 0.0 0.0
01:43 13.3 12.0 92 1029.4 0.0 NE 1.6 0.0 0.0
01:44 13.2 11.9 92 1029.4 0.0 NE 0.7 0.0 0.0
01:45 13.2 11.9 92 1029.4 0.0 NE 0.7 0.0 0.0
01:46 13.2 11.9 92 1029.6 0.0 NE 0.7 0.0 0.0
01:47 13.2 11.9 92 1029.3 0.0 NE 0.7 0.0 0.0
01:48 13.1 11.8 92 1029.6 0.0 NE 0.0 0.0 0.0
01:49 13.1 11.8 92 1029.3 0.0 NE 0.0 0.0 0.0
01:50 13.0 11.7 92 1029.4 0.0 NE 0.0 0.0 0.0
01:52 13.0 11.7 92 1029.5 0.0 NE 0.0 0.0 0.0
01:53 13.0 11.7 92 1029.6 0.0 NE 0.0 0.0 0.0
01:54 12.9 11.6 92 1029.4 0.0 NE 0.0 0.0 0.0
01:55 12.9 11.6 92 1029.4 0.0 NE 0.0 0.0 0.0
01:56 12.9 11.6 92 1029.4 0.0 NE 0.0 0.0 0.0
01:57 12.8 11.5 92 1029.6 0.0 SE 0.0 0.0 0.0
01:58 12.8 11.5 92 1029.4 0.0 SE 0.0 0.0 0.0
01:59 12.8 11.5 92 1029.8 0.0 SE 0.0 0.0 0.0
02:00 12.8 11.5 92 1029.7 0.0 SE 0.0 0.0 0.0
02:01 12.7 11.4 92 1029.6 0.0 SE 0.0 0.0 0.0
02:02 12.7 11.4 92 1029.6 0.0 SE 0.0 0.0 0.0
02:03 12.6 11.3 92 1029.6 0.0 SE 0.0 0.0 0.0
02:04 12.6 11.3 92 1029.4 0.0 SE 0.0 0.0 0.0
02:06 12.5 11.2 92 1029.6 0.0 SE 0.0 0.0 0.0
02:10 12.5 11.2 92 1029.5 0.0 NE 0.7 0.0 0.0
02:11 12.5 11.2 92 1029.4 0.0 NE 0.7 0.0 0.0
02:12 12.4 11.6 95 1029.5 0.0 NE 0.7 0.0 0.0
02:13 12.4 11.6 95 1029.5 0.0 NE 0.7 0.0 0.0
02:14 12.4 11.6 95 1029.5 0.0 NE 0.7 0.0 0.0
02:15 12.4 11.6 95 1029.5 0.0 NE 0.7 0.0 0.0
02:16 12.4 11.6 95 1029.5 0.0 NE 0.7 0.0 0.0
02:17 12.4 11.6 95 1029.6 0.0 NE 0.7 0.0 0.0
02:19 12.3 11.5 95 1029.7 0.0 N 0.7 0.0 0.0
02:20 12.3 11.5 95 1029.6 0.0 N 0.7 0.0 0.0
02:21 12.3 11.5 95 1029.6 0.0 N 0.7 0.0 0.0
02:25 12.3 11.5 95 1029.6 0.0 N 0.7 0.0 0.0
02:26 12.2 11.4 95 1029.8 0.0 N 0.7 0.0 0.0
02:27 12.2 11.4 95 1029.7 0.0 N 0.7 0.0 0.0
02:28 12.2 11.4 95 1029.6 0.0 N 0.7 0.0 0.0
02:29 12.1 11.3 95 1029.6 0.0 NE 0.7 0.0 0.0
02:30 12.1 11.3 95 1029.5 0.0 NE 0.7 0.0 0.0
02:31 12.1 11.3 95 1029.5 0.0 NE 0.7 0.0 0.0
02:32 12.0 11.1 94 1029.5 0.0 NE 0.7 0.0 0.0
02:34 11.9 11.0 94 1029.5 0.0 SE 0.7 0.0 0.0
02:35 11.8 10.9 94 1029.7 0.0 SE 0.7 0.0 0.0
02:36 11.8 10.9 94 1029.5 0.0 SE 0.7 0.0 0.0
02:37 11.7 10.8 94 1029.6 0.0 SE 0.7 0.0 0.0
02:38 11.7 10.8 94 1029.6 0.0 SE 0.7 0.0 0.0
02:39 11.6 10.7 94 1029.7 0.0 NE 0.7 0.0 0.0
02:40 11.6 10.7 94 1029.4 0.0 NE 0.7 0.0 0.0
02:41 11.6 10.7 94 1029.6 0.0 NE 0.7 0.0 0.0
02:42 11.5 10.6 94 1029.7 0.0 SE 0.7 0.0 0.0
02:43 11.5 10.6 94 1029.5 0.0 SE 0.7 0.0 0.0
02:44 11.4 10.5 94 1029.4 0.0 SE 0.0 0.0 0.0
02:45 11.4 10.5 94 1029.5 0.0 SE 0.0 0.0 0.0
02:46 11.3 10.4 94 1029.6 0.0 SE 0.0 0.0 0.0
02:48 11.3 10.4 94 1029.3 0.0 SE 0.0 0.0 0.0
02:49 11.3 10.4 94 1029.7 0.0 SE 0.0 0.0 0.0
02:50 11.3 10.4 94 1029.6 0.0 SE 0.0 0.0 0.0
02:51 11.3 10.4 94 1029.6 0.0 SE 0.0 0.0 0.0
02:52 11.3 10.4 94 1029.5 0.0 SE 0.0 0.0 0.0
02:53 11.3 10.4 94 1029.4 0.0 SE 0.0 0.0 0.0
02:54 11.3 10.4 94 1029.4 0.0 SE 0.0 0.0 0.0
02:55 11.3 10.4 94 1029.4 0.0 SE 0.0 0.0 0.0
02:56 11.3 10.4 94 1029.4 0.0 SE 0.0 0.0 0.0
02:57 11.2 10.3 94 1029.3 0.0 SE 0.0 0.0 0.0
02:58 11.2 10.3 94 1029.5 0.0 SE 0.0 0.0 0.0
02:59 11.2 10.3 94 1029.7 0.0 SE 0.0 0.0 0.0
03:00 11.2 10.3 94 1029.6 0.0 SE 0.0 0.0 0.0
03:02 11.2 10.3 94 1029.5 0.0 SE 0.0 0.0 0.0
03:03 11.2 10.3 94 1029.5 0.0 SE 0.0 0.0 0.0
03:04 11.2 10.3 94 1029.6 0.0 SE 0.0 0.0 0.0
03:05 11.2 10.3 94 1029.6 0.0 SE 0.0 0.0 0.0
03:06 11.2 10.3 94 1029.6 0.0 SE 0.0 0.0 0.0
03:07 11.2 10.3 94 1029.6 0.0 SE 0.0 0.0 0.0
03:13 11.4 10.5 94 1029.5 0.0 NW 1.6 0.0 0.0
04:21 12.2 11.7 97 1029.4 0.0 N 2.2 0.0 0.0
04:22 12.2 11.7 97 1029.4 0.0 N 2.2 0.0 0.0
04:23 12.2 11.7 97 1029.6 0.0 N 1.6 0.0 0.0
04:24 12.2 11.7 97 1029.6 0.0 N 1.6 0.0 0.0
04:30 12.1 11.6 97 1029.5 0.0 N 2.2 0.0 0.0
04:31 12.1 11.6 97 1029.5 0.0 N 2.2 0.0 0.0
04:32 12.1 11.6 97 1029.3 0.0 N 2.2 0.0 0.0
04:33 12.1 11.6 97 1029.5 0.0 N 2.2 0.0 0.0
04:34 12.1 11.6 97 1029.7 0.0 N 2.2 0.0 0.0
04:35 12.1 11.6 97 1029.4 0.0 N 2.2 0.0 0.0
04:36 12.1 11.6 97 1029.5 0.0 W 2.2 0.0 0.0
04:38 12.1 11.6 97 1029.7 0.0 N 0.7 0.0 0.0
04:39 12.1 11.6 97 1029.6 0.0 N 0.7 0.0 0.0
04:41 12.1 11.6 97 1029.4 0.0 N 0.7 0.0 0.0
04:42 12.1 11.6 97 1029.4 0.0 N 0.7 0.0 0.0
04:43 12.1 11.6 97 1029.6 0.0 N 0.7 0.0 0.0
04:44 12.1 11.6 97 1029.6 0.0 N 0.7 0.0 0.0
04:45 12.0 11.5 97 1029.6 0.0 N 0.7 0.0 0.0
04:49 12.0 11.5 97 1029.5 0.0 N 0.7 0.0 0.0
04:50 12.0 11.5 97 1029.5 0.0 N 0.7 0.0 0.0
04:51 12.0 11.5 97 1029.5 0.0 N 0.7 0.0 0.0
04:52 12.0 11.5 97 1029.4 0.0 N 0.7 0.0 0.0
04:53 12.0 11.5 97 1029.5 0.0 N 0.7 0.0 0.0
04:55 12.0 11.5 97 1029.6 0.0 N 0.7 0.0 0.0
04:56 12.0 11.5 97 1029.3 0.0 N 0.7 0.0 0.0
04:57 12.0 11.5 97 1029.5 0.0 N 0.7 0.0 0.0
04:58 12.0 11.5 97 1029.5 0.0 N 0.0 0.0 0.0
04:59 12.0 11.5 97 1029.5 0.0 N 0.0 0.0 0.0
05:00 12.0 11.5 97 1029.6 0.0 N 0.0 0.0 0.0
05:01 12.0 11.5 97 1029.6 0.0 N 0.0 0.0 0.0
05:02 12.0 11.5 97 1029.7 0.0 N 0.0 0.0 0.0
05:03 12.0 11.5 97 1029.6 0.0 N 0.0 0.0 0.0
05:04 12.0 11.5 97 1029.5 0.0 N 0.0 0.0 0.0
05:05 12.0 11.5 97 1029.5 0.0 N 0.0 0.0 0.0
05:06 12.0 11.5 97 1029.6 0.0 N 0.0 0.0 0.0
05:07 12.0 11.5 97 1029.3 0.0 N 0.0 0.0 0.0
05:09 11.9 11.4 97 1029.5 0.0 NE 0.7 0.0 0.0
05:10 11.9 11.4 97 1029.7 0.0 NE 0.7 0.0 0.0
05:11 11.8 11.3 97 1029.7 0.0 NE 0.7 0.0 0.0
05:12 11.9 11.4 97 1029.5 0.0 NE 0.7 0.0 0.0
05:13 11.9 11.4 97 1029.6 0.0 NE 0.7 0.0 0.0
05:14 11.8 11.3 97 1029.6 0.0 NE 0.7 0.0 0.0
05:15 11.8 11.3 97 1029.5 0.0 NE 0.7 0.0 0.0
05:17 11.8 11.3 97 1029.6 0.0 NE 0.7 0.0 0.0
05:18 11.8 11.3 97 1029.6 0.0 NE 0.7 0.0 0.0
05:19 11.8 11.3 97 1029.7 0.0 NE 0.7 0.0 0.0
05:20 11.8 11.3 97 1029.5 0.0 NE 0.7 0.0 0.0
05:21 11.8 11.3 97 1029.7 0.0 NE 0.7 0.0 0.0
05:23 11.8 11.3 97 1029.5 0.0 SE 0.7 0.0 0.0
05:24 11.8 11.3 97 1029.5 0.0 SE 0.7 0.0 0.0
05:25 11.8 11.3 97 1029.7 0.0 SE 0.7 0.0 0.0
05:26 11.8 11.3 97 1029.4 0.0 SE 0.0 0.0 0.0
05:27 11.8 11.3 97 1029.4 0.0 SE 0.0 0.0 0.0
05:29 11.8 11.3 97 1029.4 0.0 N 0.7 0.0 0.0
05:30 11.8 11.3 97 1029.5 0.0 N 0.7 0.0 0.0
05:31 11.8 11.3 97 1029.5 0.0 N 0.7 0.0 0.0
05:32 11.8 11.3 97 1029.8 0.0 N 0.7 0.0 0.0
05:33 11.8 11.3 97 1029.6 0.0 N 0.7 0.0 0.0
05:34 11.8 11.3 97 1029.7 0.0 N 0.7 0.0 0.0
05:35 11.8 11.3 97 1029.8 0.0 N 0.7 0.0 0.0
05:37 11.8 11.5 98 1029.7 0.0 N 0.7 0.0 0.0
05:38 11.8 11.5 98 1029.5 0.0 N 0.7 0.0 0.0
05:39 11.8 11.5 98 1029.7 0.0 N 0.0 0.0 0.0
05:40 11.8 11.5 98 1029.6 0.0 N 0.0 0.0 0.0
05:41 11.8 11.5 98 1029.6 0.0 N 0.0 0.0 0.0
05:42 11.8 11.5 98 1029.7 0.0 N 0.0 0.0 0.0
05:43 11.8 11.5 98 1029.6 0.0 N 0.0 0.0 0.0
05:44 11.8 11.5 98 1029.7 0.0 N 0.0 0.0 0.0
05:45 11.8 11.5 98 1029.5 0.0 N 0.0 0.0 0.0
06:11 12.2 12.1 99 1029.8 0.0 NW 2.2 0.0 0.0
06:12 12.2 12.1 99 1029.7 0.0 NW 2.2 0.0 0.0
06:15 12.2 12.1 99 1029.7 0.0 N 1.6 0.0 0.0
06:22 12.2 12.1 99 1029.7 0.0 N 1.6 0.0 0.0
06:23 12.2 12.1 99 1029.7 0.0 N 1.6 0.0 0.0
06:26 12.2 12.1 99 1029.7 0.0 NW 1.6 0.0 0.0
06:27 12.2 12.1 99 1029.7 0.0 N 1.6 0.0 0.0
06:30 12.2 12.1 99 1029.8 0.0 N 1.6 0.0 0.0
06:31 12.2 12.1 99 1029.8 0.0 N 1.6 0.0 0.0
06:36 12.3 12.2 99 1029.9 0.0 SW 1.6 0.0 0.0
06:38 12.3 12.2 99 1030.0 0.0 NW 1.6 0.0 0.0
06:41 12.3 12.2 99 1029.8 0.0 N 1.6 0.0 0.0
06:42 12.3 12.2 99 1030.0 0.0 N 1.6 0.0 0.0
06:46 12.3 12.2 99 1030.0 0.0 N 0.7 0.0 0.0
06:51 12.2 12.1 99 1030.0 0.0 N 1.6 0.0 0.0
06:52 12.2 12.1 99 1029.8 0.0 N 1.6 0.0 0.0
06:56 12.2 12.1 99 1030.1 0.0 N 1.6 0.0 0.0
06:57 12.2 12.1 99 1030.0 0.0 N 1.6 0.0 0.0
06:59 12.2 12.1 99 1030.0 0.0 N 0.7 0.0 0.0
07:08 12.2 12.1 99 1030.0 0.0 WNW 0.7 0.0 0.0
07:09 12.2 12.1 99 1030.1 0.0 SW 0.7 0.0 0.0
07:10 12.2 12.1 99 1030.2 0.0 SW 0.7 0.0 0.0
07:11 12.2 12.1 99 1029.9 0.0 SW 0.7 0.0 0.0
07:12 12.2 12.1 99 1030.0 0.0 SW 0.7 0.0 0.0
07:13 12.2 12.1 99 1029.9 0.0 SW 0.7 0.0 0.0
07:14 12.2 12.1 99 1029.9 0.0 SW 0.7 0.0 0.0
07:15 12.1 12.0 99 1030.0 0.0 SW 0.7 0.0 0.0
07:16 12.1 12.0 99 1030.0 0.0 SW 0.7 0.0 0.0
07:17 12.1 12.0 99 1029.9 0.0 SW 0.7 0.0 0.0
07:19 12.1 12.0 99 1030.0 0.0 NE 0.0 0.0 0.0
07:20 12.1 12.0 99 1030.1 0.0 W 0.0 0.0 0.0
07:21 12.0 11.9 99 1029.8 0.0 W 0.0 0.0 0.0
07:24 12.0 11.9 99 1029.8 0.0 NW 0.7 0.0 0.0
07:26 12.0 11.9 99 1030.0 0.0 N 0.7 0.0 0.0
07:27 12.0 11.9 99 1030.2 0.0 W 0.7 0.0 0.0
07:29 12.0 11.9 99 1030.1 0.0 N 1.6 0.0 0.0
01:16 13.6 12.3 92 1029.4 0.7 NE 3.1 0.0 0.0
01:19 13.6 12.3 92 1029.6 0.7 NNE 3.1 0.0 0.0
01:20 13.6 12.3 92 1029.5 0.7 NNE 3.1 0.0 0.0
01:34 13.4 12.1 92 1029.5 0.7 NE 3.1 0.0 0.0
01:35 13.4 12.1 92 1029.7 0.7 NE 3.1 0.0 0.0
01:36 13.4 12.1 92 1029.5 0.7 NE 3.1 0.0 0.0
02:07 12.5 11.2 92 1029.6 0.7 E 0.7 0.0 0.0
02:08 12.5 11.2 92 1029.4 0.7 E 0.7 0.0 0.0
02:09 12.5 11.2 92 1029.4 0.7 E 0.7 0.0 0.0
02:22 12.3 11.5 95 1029.6 0.7 N 0.7 0.0 0.0
02:23 12.3 11.5 95 1029.6 0.7 N 0.7 0.0 0.0
02:24 12.3 11.5 95 1029.7 0.7 N 0.7 0.0 0.0
03:10 11.3 10.4 94 1029.5 0.7 NE 1.6 0.0 0.0
03:11 11.3 10.4 94 1029.4 0.7 NE 1.6 0.0 0.0
03:12 11.4 10.5 94 1029.4 0.7 N 1.6 0.0 0.0
03:17 11.5 10.6 94 1029.6 0.7 N 1.6 0.0 0.0
03:18 11.5 10.6 94 1029.7 0.7 N 1.6 0.0 0.0
03:19 11.5 10.6 94 1029.7 0.7 N 1.6 0.0 0.0
03:20 11.5 10.6 94 1029.6 0.7 N 1.6 0.0 0.0
03:21 11.5 10.7 95 1029.5 0.7 N 1.6 0.0 0.0
03:23 11.6 10.8 95 1029.4 0.7 N 1.6 0.0 0.0
03:24 11.6 10.8 95 1029.6 0.7 NE 1.6 0.0 0.0
03:27 11.7 10.9 95 1029.5 0.7 N 2.2 0.0 0.0
03:28 11.7 10.9 95 1029.5 0.7 N 2.2 0.0 0.0
03:30 11.8 11.0 95 1029.5 0.7 SE 2.2 0.0 0.0
03:31 11.8 11.0 95 1029.5 0.7 SE 2.2 0.0 0.0
03:32 11.9 11.1 95 1029.3 0.7 NW 2.2 0.0 0.0
03:33 11.9 11.1 95 1029.4 0.7 NW 2.2 0.0 0.0
03:34 11.9 11.1 95 1029.6 0.7 NW 2.2 0.0 0.0
03:35 11.9 11.1 95 1029.4 0.7 N 2.2 0.0 0.0
03:36 11.9 11.1 95 1029.7 0.7 N 2.2 0.0 0.0
03:45 12.0 11.4 96 1029.4 0.7 N 2.2 0.0 0.0
03:46 12.0 11.4 96 1029.4 0.7 W 2.2 0.0 0.0
03:47 12.0 11.4 96 1029.5 0.7 NE 2.2 0.0 0.0
03:48 12.0 11.4 96 1029.5 0.7 NE 2.2 0.0 0.0
03:52 12.0 11.4 96 1029.4 0.7 N 2.2 0.0 0.0
03:55 12.0 11.4 96 1029.6 0.7 N 2.2 0.0 0.0
04:13 12.2 11.7 97 1029.3 0.7 NW 3.1 0.0 0.0
04:17 12.2 11.7 97 1029.5 0.7 N 3.1 0.0 0.0
04:18 12.2 11.7 97 1029.3 0.7 NW 3.1 0.0 0.0
04:19 12.2 11.7 97 1029.4 0.7 NW 3.1 0.0 0.0
04:20 12.2 11.7 97 1029.6 0.7 NW 3.1 0.0 0.0
04:28 12.1 11.6 97 1029.5 0.7 N 2.2 0.0 0.0
04:29 12.1 11.6 97 1029.5 0.7 N 2.2 0.0 0.0
04:37 12.1 11.6 97 1029.5 0.7 N 2.2 0.0 0.0
04:46 12.0 11.5 97 1029.5 0.7 NE 0.7 0.0 0.0
04:47 12.0 11.5 97 1029.6 0.7 NE 0.7 0.0 0.0
04:48 12.0 11.5 97 1029.5 0.7 NE 0.7 0.0 0.0
05:16 11.8 11.3 97 1029.6 0.7 NE 0.7 0.0 0.0
05:28 11.8 11.3 97 1029.6 0.7 N 0.7 0.0 0.0
05:52 12.0 11.7 98 1029.4 0.7 N 3.1 0.0 0.0
05:56 12.0 11.7 98 1029.5 0.7 NE 3.1 0.0 0.0
05:57 12.0 11.7 98 1029.7 0.7 N 3.1 0.0 0.0
05:58 12.0 11.7 98 1029.7 0.7 N 2.2 0.0 0.0
05:59 12.0 11.7 98 1029.7 0.7 N 2.2 0.0 0.0
06:00 12.1 11.8 98 1029.7 0.7 N 1.6 0.0 0.0
06:05 12.2 12.1 99 1029.6 0.7 NW 2.2 0.0 0.0
06:06 12.2 12.1 99 1029.6 0.7 NE 2.2 0.0 0.0
06:07 12.2 12.1 99 1029.7 0.7 NE 2.2 0.0 0.0
06:14 12.2 12.1 99 1029.8 0.7 N 2.2 0.0 0.0
06:16 12.2 12.1 99 1029.6 0.7 N 1.6 0.0 0.0
06:17 12.2 12.1 99 1029.6 0.7 N 1.6 0.0 0.0
06:19 12.2 12.1 99 1029.8 0.7 N 1.6 0.0 0.0
06:20 12.2 12.1 99 1029.8 0.7 N 1.6 0.0 0.0
06:21 12.2 12.1 99 1029.8 0.7 N 1.6 0.0 0.0
06:24 12.2 12.1 99 1029.7 0.7 N 0.7 0.0 0.0
06:28 12.2 12.1 99 1029.7 0.7 N 1.6 0.0 0.0
06:29 12.2 12.1 99 1029.6 0.7 N 1.6 0.0 0.0
06:34 12.3 12.2 99 1029.7 0.7 E 1.6 0.0 0.0
06:37 12.3 12.2 99 1029.8 0.7 NW 1.6 0.0 0.0
06:39 12.3 12.2 99 1029.8 0.7 N 1.6 0.0 0.0
06:40 12.3 12.2 99 1029.8 0.7 N 1.6 0.0 0.0
06:43 12.3 12.2 99 1030.1 0.7 N 1.6 0.0 0.0
06:44 12.3 12.2 99 1030.1 0.7 N 0.7 0.0 0.0
06:45 12.3 12.2 99 1029.9 0.7 N 0.7 0.0 0.0
06:48 12.3 12.2 99 1030.1 0.7 N 1.6 0.0 0.0
06:49 12.3 12.2 99 1030.2 0.7 N 1.6 0.0 0.0
06:53 12.2 12.1 99 1029.9 0.7 N 1.6 0.0 0.0
06:54 12.2 12.1 99 1030.0 0.7 N 1.6 0.0 0.0
06:55 12.2 12.1 99 1030.0 0.7 N 1.6 0.0 0.0
06:58 12.2 12.1 99 1029.8 0.7 N 0.7 0.0 0.0
07:00 12.2 12.1 99 1030.0 0.7 NE 0.7 0.0 0.0
07:01 12.2 12.1 99 1029.8 0.7 NE 0.7 0.0 0.0
07:02 12.2 12.1 99 1030.0 0.7 NE 0.7 0.0 0.0
07:03 12.2 12.1 99 1030.0 0.7 NE 0.7 0.0 0.0
07:05 12.2 12.1 99 1029.8 0.7 NE 0.7 0.0 0.0
07:06 12.2 12.1 99 1030.0 0.7 N 0.7 0.0 0.0
07:07 12.2 12.1 99 1030.1 0.7 NE 0.7 0.0 0.0
07:22 12.0 11.9 99 1030.0 0.7 SW 0.7 0.0 0.0
07:23 12.0 11.9 99 1030.0 0.7 SW 0.7 0.0 0.0
07:25 12.0 11.9 99 1030.1 0.7 N 0.7 0.0 0.0
07:30 12.0 11.9 99 1030.1 0.7 N 1.6 0.0 0.0
07:31 12.0 11.9 99 1030.1 0.7 N 1.6 0.0 0.0
07:35 12.1 12.0 99 1030.0 0.7 N 1.6 0.0 0.0
07:37 12.1 12.0 99 1030.2 0.7 N 1.6 0.0 0.0
07:38 12.2 12.1 99 1030.1 0.7 NW 1.6 0.0 0.0
07:40 12.2 12.1 99 1030.3 0.7 N 1.6 0.0 0.0
07:43 12.3 12.2 99 1030.0 0.7 NW 2.2 0.0 0.0
07:50 12.6 12.0 96 1030.4 0.7 NW 2.2 0.8 0.1
07:51 12.6 12.0 96 1030.3 0.7 N 1.6 0.0 0.1
07:52 12.6 12.0 96 1030.3 0.7 N 1.6 0.0 0.1
07:57 12.7 12.1 96 1030.3 0.7 NE 1.6 0.0 0.1
08:00 12.8 12.2 96 1030.3 0.7 N 1.6 0.0 0.1
08:01 12.8 12.2 96 1030.3 0.7 N 1.6 0.0 0.1
08:08 13.0 12.5 97 1030.0 0.7 N 2.2 0.0 0.1
08:09 13.0 12.5 97 1030.3 0.7 NE 2.2 0.0 0.1
08:22 13.5 13.0 97 1030.3 0.7 N 3.1 0.0 0.1
08:23 13.5 13.2 98 1030.1 0.7 N 3.1 0.0 0.1
22:58 14.0 12.6 91 1030.6 0.7 NE 2.2 0.0 0.1
23:21 13.9 12.6 92 1030.5 0.7 NE 1.6 0.0 0.1
23:22 13.9 12.6 92 1030.5 0.7 NE 1.6 0.0 0.1
00:21 13.8 12.5 92 1029.6 1.6 NE 4.5 0.0 0.0
00:44 13.7 12.4 92 1029.6 1.6 N 3.1 0.0 0.0
00:45 13.7 12.4 92 1029.6 1.6 N 3.1 0.0 0.0
00:47 13.7 12.4 92 1029.6 1.6 NW 3.1 0.0 0.0
00:48 13.7 12.4 92 1029.4 1.6 NE 2.2 0.0 0.0
00:49 13.7 12.4 92 1029.3 1.6 N 2.2 0.0 0.0
00:50 13.7 12.4 92 1029.3 1.6 NW 2.2 0.0 0.0
00:51 13.7 12.4 92 1029.5 1.6 NW 2.2 0.0 0.0
00:52 13.7 12.4 92 1029.5 1.6 NW 2.2 0.0 0.0
00:53 13.6 12.3 92 1029.6 1.6 E 2.2 0.0 0.0
01:14 13.6 12.3 92 1029.5 1.6 NE 3.1 0.0 0.0
01:15 13.6 12.3 92 1029.4 1.6 NE 3.1 0.0 0.0
01:17 13.6 12.3 92 1029.5 1.6 N 3.1 0.0 0.0
01:18 13.6 12.3 92 1029.3 1.6 N 3.1 0.0 0.0
01:21 13.5 12.2 92 1029.7 1.6 NE 3.1 0.0 0.0
01:25 13.5 12.2 92 1029.5 1.6 NE 2.2 0.0 0.0
01:29 13.5 12.2 92 1029.5 1.6 NE 3.1 0.0 0.0
01:30 13.5 12.2 92 1029.5 1.6 NE 3.1 0.0 0.0
01:31 13.5 12.2 92 1029.5 1.6 NE 3.1 0.0 0.0
01:32 13.5 12.2 92 1029.2 1.6 NE 3.1 0.0 0.0
01:33 13.5 12.2 92 1029.5 1.6 NE 3.1 0.0 0.0
03:08 11.3 10.4 94 1029.7 1.6 SW 1.6 0.0 0.0
03:09 11.3 10.4 94 1029.5 1.6 N 1.6 0.0 0.0
03:14 11.5 10.6 94 1029.6 1.6 N 1.6 0.0 0.0
03:16 11.5 10.6 94 1029.7 1.6 N 1.6 0.0 0.0
03:22 11.6 10.8 95 1029.5 1.6 W 1.6 0.0 0.0
03:26 11.7 10.9 95 1029.5 1.6 S 2.2 0.0 0.0
03:37 11.9 11.1 95 1029.6 1.6 N 2.2 0.0 0.0
03:38 11.9 11.1 95 1029.3 1.6 NE 2.2 0.0 0.0
03:39 11.9 11.3 96 1029.3 1.6 N 2.2 0.0 0.0
03:41 12.0 11.4 96 1029.5 1.6 NW 2.2 0.0 0.0
03:44 12.0 11.4 96 1029.5 1.6 NE 2.2 0.0 0.0
03:49 12.0 11.4 96 1029.3 1.6 NW 2.2 0.0 0.0
03:54 12.0 11.4 96 1029.2 1.6 N 2.2 0.0 0.0
03:56 12.0 11.4 96 1029.4 1.6 NW 2.2 0.0 0.0
03:58 12.0 11.4 96 1029.2 1.6 E 2.2 0.0 0.0
03:59 12.0 11.4 96 1029.3 1.6 NE 2.2 0.0 0.0
04:14 12.2 11.7 97 1029.4 1.6 NW 3.1 0.0 0.0
04:15 12.2 11.7 97 1029.4 1.6 NW 3.1 0.0 0.0
04:16 12.2 11.7 97 1029.4 1.6 NW 3.1 0.0 0.0
04:27 12.1 11.6 97 1029.5 1.6 N 2.2 0.0 0.0
05:51 12.0 11.7 98 1029.7 1.6 NW 3.1 0.0 0.0
05:53 12.0 11.7 98 1029.5 1.6 NE 3.1 0.0 0.0
05:54 12.0 11.7 98 1029.6 1.6 NE 3.1 0.0 0.0
05:55 12.0 11.7 98 1029.6 1.6 NE 3.1 0.0 0.0
06:08 12.2 12.1 99 1029.7 1.6 N 2.2 0.0 0.0
06:09 12.2 12.1 99 1029.6 1.6 NW 2.2 0.0 0.0
06:10 12.2 12.1 99 1029.7 1.6 NW 2.2 0.0 0.0
06:13 12.2 12.1 99 1029.6 1.6 N 2.2 0.0 0.0
06:25 12.2 12.1 99 1029.8 1.6 NW 1.6 0.0 0.0
06:32 12.3 12.2 99 1029.8 1.6 N 1.6 0.0 0.0
06:33 12.3 12.2 99 1029.9 1.6 N 1.6 0.0 0.0
06:47 12.3 12.2 99 1030.1 1.6 N 1.6 0.0 0.0
07:28 12.0 11.9 99 1030.0 1.6 NW 1.6 0.0 0.0
07:32 12.0 11.9 99 1030.0 1.6 N 1.6 0.0 0.0
07:34 12.1 12.0 99 1030.0 1.6 N 1.6 0.0 0.0
07:36 12.1 12.0 99 1030.3 1.6 N 1.6 0.0 0.0
07:39 12.2 12.1 99 1030.1 1.6 SE 1.6 0.0 0.0
07:42 12.3 12.2 99 1030.2 1.6 NW 2.2 0.0 0.0
07:44 12.4 12.3 99 1030.3 1.6 E 2.2 0.0 0.0
07:45 12.4 12.3 99 1030.3 1.6 E 2.2 0.0 0.0
07:46 12.5 11.9 96 1030.0 1.6 NE 2.2 0.8 0.1
07:47 12.5 11.9 96 1030.1 1.6 N 2.2 0.8 0.1
07:49 12.5 11.9 96 1030.3 1.6 NE 2.2 0.8 0.1
07:53 12.6 12.0 96 1030.3 1.6 NE 1.6 0.0 0.1
07:54 12.6 12.0 96 1030.2 1.6 NE 1.6 0.0 0.1
07:55 12.6 12.0 96 1030.2 1.6 NE 1.6 0.0 0.1
07:56 12.7 12.1 96 1030.3 1.6 NE 1.6 0.0 0.1
07:58 12.7 12.1 96 1030.3 1.6 NE 1.6 0.0 0.1
07:59 12.8 12.2 96 1030.2 1.6 N 1.6 0.0 0.1
08:03 12.9 12.3 96 1030.3 1.6 N 1.6 0.0 0.1
08:04 12.9 12.3 96 1030.2 1.6 N 1.6 0.0 0.1
08:10 13.0 12.5 97 1030.3 1.6 NW 2.2 0.0 0.1
08:13 13.1 12.6 97 1030.2 1.6 N 2.2 0.0 0.1
08:14 13.2 12.7 97 1030.4 1.6 N 2.2 0.0 0.1
08:15 13.2 12.7 97 1030.2 1.6 N 2.2 0.0 0.1
08:17 13.3 12.8 97 1030.3 1.6 N 2.2 0.0 0.1
08:21 13.4 12.9 97 1030.4 1.6 NE 3.1 0.0 0.1
08:27 13.6 13.3 98 1030.3 1.6 N 3.8 0.0 0.1
08:28 13.6 13.3 98 1030.2 1.6 N 3.8 0.0 0.1
08:32 13.7 13.4 98 1030.3 1.6 NE 3.8 0.0 0.1
09:10 14.6 14.5 99 1030.6 1.6 N 5.4 0.0 0.1
11:49 19.8 15.3 75 1031.3 1.6 N 6.0 0.0 0.1
11:50 19.8 15.3 75 1031.2 1.6 N 6.0 0.0 0.1
14:12 21.3 15.6 70 1031.0 1.6 S 6.9 0.0 0.1
14:24 22.1 15.5 66 1031.2 1.6 N 5.4 0.0 0.1
14:25 22.1 15.5 66 1031.2 1.6 N 5.4 0.0 0.1
14:56 20.8 14.9 69 1030.8 1.6 N 5.4 0.0 0.1
18:09 19.5 14.5 73 1030.4 1.6 W 5.4 0.0 0.1
18:10 19.5 14.5 73 1030.6 1.6 W 5.4 0.0 0.1
19:16 16.7 13.6 82 1030.3 1.6 NE 4.5 0.0 0.1
19:56 15.5 12.8 84 1030.5 1.6 NE 3.8 0.0 0.1
20:11 15.3 12.8 85 1030.7 1.6 NE 3.1 0.0 0.1
20:12 15.2 12.7 85 1030.5 1.6 NE 3.1 0.0 0.1
20:20 15.1 12.8 86 1030.7 1.6 NE 3.8 0.0 0.1
20:21 15.1 12.8 86 1030.5 1.6 NE 3.8 0.0 0.1
20:22 15.1 12.8 86 1030.7 1.6 N 3.8 0.0 0.1
20:25 15.1 12.8 86 1030.5 1.6 N 4.5 0.0 0.1
20:27 15.1 13.0 87 1030.6 1.6 NE 4.5 0.0 0.1
20:32 15.0 12.9 87 1030.4 1.6 N 4.5 0.0 0.1
20:47 14.8 12.8 88 1030.5 1.6 E 3.1 0.0 0.1
20:51 14.7 12.7 88 1030.5 1.6 E 3.8 0.0 0.1
22:00 14.4 13.0 91 1031.0 1.6 N 4.5 0.0 0.1
22:07 14.3 12.9 91 1030.9 1.6 NE 3.1 0.0 0.1
22:08 14.3 12.9 91 1030.6 1.6 N 3.1 0.0 0.1
22:09 14.2 12.8 91 1030.8 1.6 N 3.1 0.0 0.1
22:13 14.2 12.8 91 1030.7 1.6 NW 3.1 0.0 0.1
22:14 14.2 12.8 91 1030.8 1.6 N 3.1 0.0 0.1
22:30 14.2 12.8 91 1030.7 1.6 NW 3.8 0.0 0.1
22:34 14.2 12.8 91 1030.5 1.6 N 3.8 0.0 0.1
22:39 14.2 12.8 91 1030.5 1.6 N 3.1 0.0 0.1
22:49 14.1 12.7 91 1030.4 1.6 NW 3.1 0.0 0.1
22:50 14.1 12.7 91 1030.7 1.6 NE 3.1 0.0 0.1
22:51 14.1 12.7 91 1030.6 1.6 NE 3.1 0.0 0.1
22:52 14.1 12.7 91 1030.6 1.6 NE 3.1 0.0 0.1
22:53 14.0 12.6 91 1030.4 1.6 N 3.1 0.0 0.1
22:54 14.1 12.7 91 1030.3 1.6 NE 3.1 0.0 0.1
22:55 14.0 12.6 91 1030.6 1.6 NE 3.1 0.0 0.1
22:56 14.0 12.6 91 1030.6 1.6 NE 3.1 0.0 0.1
22:57 14.0 12.6 91 1030.7 1.6 N 2.2 0.0 0.1
23:00 14.0 12.6 91 1030.7 1.6 NW 2.2 0.0 0.1
23:01 14.0 12.6 91 1030.4 1.6 NW 2.2 0.0 0.1
23:02 14.0 12.6 91 1030.4 1.6 NW 2.2 0.0 0.1
23:03 14.0 12.6 91 1030.3 1.6 NW 1.6 0.0 0.1
23:04 14.0 12.6 91 1030.4 1.6 NW 1.6 0.0 0.1
23:05 14.0 12.6 91 1030.4 1.6 NW 1.6 0.0 0.1
23:06 14.0 12.6 91 1030.4 1.6 NW 1.6 0.0 0.1
23:11 13.9 12.5 91 1030.5 1.6 NE 2.2 0.0 0.1
23:12 13.9 12.5 91 1030.3 1.6 W 2.2 0.0 0.1
23:13 13.9 12.5 91 1030.3 1.6 N 2.2 0.0 0.1
23:14 13.9 12.5 91 1030.2 1.6 SE 2.2 0.0 0.1
23:16 13.9 12.5 91 1030.2 1.6 N 2.2 0.0 0.1
23:17 13.9 12.5 91 1030.5 1.6 NW 2.2 0.0 0.1
23:18 13.9 12.5 91 1030.5 1.6 N 2.2 0.0 0.1
23:19 13.9 12.5 91 1030.5 1.6 NE 2.2 0.0 0.1
23:20 13.9 12.5 91 1030.4 1.6 NE 2.2 0.0 0.1
23:23 13.9 12.6 92 1030.3 1.6 W 1.6 0.0 0.1
23:24 13.9 12.6 92 1030.5 1.6 N 1.6 0.0 0.1
23:27 13.9 12.6 92 1030.4 1.6 E 3.1 0.0 0.1
23:28 13.9 12.6 92 1030.4 1.6 N 3.1 0.0 0.1
23:39 13.8 12.5 92 1030.7 1.6 N 2.2 0.0 0.1
23:41 13.8 12.5 92 1030.6 1.6 NE 2.2 0.0 0.1
23:42 13.8 12.5 92 1030.6 1.6 NE 2.2 0.0 0.1
00:07 13.8 12.4 91 1029.4 2.2 NW 3.1 0.0 0.0
00:08 13.8 12.4 91 1029.4 2.2 N 3.1 0.0 0.0
00:11 13.8 12.4 91 1029.1 2.2 N 3.8 0.0 0.0
00:15 13.8 12.5 92 1029.5 2.2 S 4.5 0.0 0.0
00:16 13.8 12.5 92 1029.3 2.2 S 4.5 0.0 0.0
00:17 13.8 12.5 92 1029.4 2.2 S 4.5 0.0 0.0
00:22 13.8 12.5 92 1029.5 2.2 SE 4.5 0.0 0.0
00:23 13.8 12.5 92 1029.4 2.2 NE 3.8 0.0 0.0
00:27 13.8 12.5 92 1029.5 2.2 NE 4.5 0.0 0.0
00:30 13.8 12.5 92 1029.5 2.2 NE 4.5 0.0 0.0
00:31 13.8 12.5 92 1029.5 2.2 NE 4.5 0.0 0.0
00:35 13.8 12.5 92 1029.4 2.2 N 4.5 0.0 0.0
00:36 13.8 12.5 92 1029.4 2.2 N 4.5 0.0 0.0
00:38 13.8 12.5 92 1029.5 2.2 E 4.5 0.0 0.0
00:39 13.7 12.4 92 1029.4 2.2 SW 3.8 0.0 0.0
00:41 13.7 12.4 92 1029.4 2.2 N 3.8 0.0 0.0
00:42 13.7 12.4 92 1029.5 2.2 NW 3.8 0.0 0.0
00:43 13.7 12.4 92 1029.6 2.2 N 3.8 0.0 0.0
00:46 13.7 12.4 92 1029.5 2.2 NW 3.1 0.0 0.0
00:54 13.6 12.3 92 1029.3 2.2 ENE 2.2 0.0 0.0
00:58 13.6 12.3 92 1029.6 2.2 NE 4.5 0.0 0.0
00:59 13.6 12.3 92 1029.6 2.2 NE 4.5 0.0 0.0
01:00 13.6 12.3 92 1029.3 2.2 NE 4.5 0.0 0.0
01:01 13.6 12.3 92 1029.3 2.2 NE 4.5 0.0 0.0
01:02 13.6 12.3 92 1029.3 2.2 NE 4.5 0.0 0.0
01:03 13.6 12.3 92 1029.3 2.2 NE 4.5 0.0 0.0
01:04 13.6 12.3 92 1029.4 2.2 NE 4.5 0.0 0.0
01:05 13.6 12.3 92 1029.2 2.2 NE 4.5 0.0 0.0
01:06 13.6 12.3 92 1029.5 2.2 NE 4.5 0.0 0.0
01:07 13.6 12.3 92 1029.5 2.2 N 4.5 0.0 0.0
01:08 13.6 12.3 92 1029.7 2.2 NE 2.2 0.0 0.0
01:13 13.6 12.3 92 1029.5 2.2 NE 3.1 0.0 0.0
01:24 13.5 12.2 92 1029.4 2.2 E 2.2 0.0 0.0
03:25 11.6 10.8 95 1029.5 2.2 N 2.2 0.0 0.0
03:40 12.0 11.4 96 1029.3 2.2 N 2.2 0.0 0.0
03:42 12.0 11.4 96 1029.4 2.2 NW 2.2 0.0 0.0
03:50 12.0 11.4 96 1029.4 2.2 N 2.2 0.0 0.0
03:51 12.0 11.4 96 1029.1 2.2 NE 2.2 0.0 0.0
03:53 12.0 11.4 96 1029.5 2.2 N 2.2 0.0 0.0
04:00 12.0 11.4 96 1029.4 2.2 ESE 2.2 0.0 0.0
04:01 12.0 11.4 96 1029.4 2.2 N 2.2 0.0 0.0
04:02 12.1 11.5 96 1029.5 2.2 NE 2.2 0.0 0.0
04:03 12.1 11.5 96 1029.3 2.2 E 2.2 0.0 0.0
04:04 12.1 11.5 96 1029.3 2.2 E 2.2 0.0 0.0
04:05 12.1 11.5 96 1029.4 2.2 E 2.2 0.0 0.0
04:10 12.2 11.7 97 1029.3 2.2 N 3.1 0.0 0.0
04:12 12.2 11.7 97 1029.2 2.2 NE 3.1 0.0 0.0
04:26 12.1 11.6 97 1029.5 2.2 NE 2.2 0.0 0.0
05:48 11.9 11.6 98 1029.5 2.2 N 3.1 0.0 0.0
05:49 11.9 11.6 98 1029.6 2.2 N 3.1 0.0 0.0
06:01 12.1 11.8 98 1029.9 2.2 N 2.2 0.0 0.0
06:02 12.1 12.0 99 1029.7 2.2 NE 2.2 0.0 0.0
06:03 12.2 12.1 99 1029.8 2.2 NW 2.2 0.0 0.0
07:41 12.3 12.2 99 1030.2 2.2 NW 2.2 0.0 0.0
08:05 12.9 12.3 96 1030.4 2.2 NE 2.2 0.0 0.1
08:06 12.9 12.3 96 1030.4 2.2 N 2.2 0.0 0.1
08:07 12.9 12.4 97 1030.3 2.2 N 2.2 0.0 0.1
08:11 13.1 12.6 97 1030.4 2.2 E 2.2 0.0 0.1
08:12 13.1 12.6 97 1030.5 2.2 N 2.2 0.0 0.1
08:33 13.7 13.4 98 1030.4 2.2 N 3.8 0.0 0.1
08:34 13.8 13.5 98 1030.4 2.2 N 3.8 0.0 0.1
08:35 13.8 13.5 98 1030.4 2.2 N 3.1 0.0 0.1
08:36 13.8 13.5 98 1030.3 2.2 N 3.1 0.0 0.1
08:48 14.2 14.1 99 1030.4 2.2 N 4.5 0.0 0.1
08:56 14.4 14.3 99 1030.5 2.2 N 3.8 0.0 0.1
08:58 14.5 14.4 99 1030.6 2.2 N 3.8 0.0 0.1
09:07 14.6 14.5 99 1030.6 2.2 NW 5.4 0.0 0.1
09:09 14.6 14.5 99 1030.7 2.2 NE 5.4 0.0 0.1
09:13 14.6 14.5 99 1030.4 2.2 N 5.4 0.0 0.1
09:26 14.7 14.6 99 1030.5 2.2 NE 6.9 0.0 0.1
09:33 14.7 14.6 99 1030.7 2.2 N 6.9 0.0 0.1
09:38 14.8 14.7 99 1030.7 2.2 N 3.8 0.0 0.1
09:58 15.3 15.3 100 1030.7 2.2 NE 5.4 0.0 0.1
10:51 17.3 16.2 93 1031.2 2.2 NW 5.4 0.0 0.1
11:25 19.3 15.2 77 1031.2 2.2 N 5.4 0.0 0.1
11:48 19.9 15.6 76 1031.2 2.2 W 6.9 0.0 0.1
12:51 20.3 14.9 71 1031.2 2.2 NE 6.0 0.0 0.1
13:05 20.4 15.0 71 1031.1 2.2 W 7.6 0.0 0.1
13:06 20.4 15.2 72 1031.2 2.2 SW 6.9 0.0 0.1
13:40 20.9 15.2 70 1031.4 2.2 NW 6.9 0.0 0.1
13:51 19.9 14.5 71 1031.0 2.2 E 6.0 0.0 0.1
13:52 19.9 14.5 71 1031.1 2.2 W 6.0 0.0 0.1
13:55 20.0 14.6 71 1031.3 2.2 E 6.0 0.0 0.1
13:56 20.0 14.6 71 1031.1 2.2 N 6.0 0.0 0.1
14:10 21.2 15.5 70 1031.2 2.2 N 6.9 0.0 0.1
14:13 21.5 15.8 70 1031.1 2.2 NW 6.9 0.0 0.1
14:16 21.7 15.8 69 1030.9 2.2 N 6.9 0.0 0.1
14:48 21.2 15.3 69 1030.8 2.2 N 6.0 0.0 0.1
14:55 20.9 15.0 69 1030.7 2.2 N 5.4 0.0 0.1
14:59 20.7 14.8 69 1030.9 2.2 N 5.4 0.0 0.1
15:18 20.3 15.3 73 1030.8 2.2 N 7.6 0.0 0.1
17:09 21.0 14.9 68 1030.5 2.2 N 6.0 0.0 0.1
17:10 21.0 14.9 68 1030.7 2.2 N 6.0 0.0 0.1
18:04 19.4 14.2 72 1030.5 2.2 NW 6.9 0.0 0.1
18:08 19.4 14.4 73 1030.4 2.2 NW 5.4 0.0 0.1
18:20 19.0 14.3 74 1030.5 2.2 N 4.5 0.0 0.1
18:21 18.9 14.2 74 1030.4 2.2 NW 4.5 0.0 0.1
18:22 18.9 14.2 74 1030.4 2.2 NW 4.5 0.0 0.1
19:11 16.8 13.7 82 1030.5 2.2 NW 6.0 0.0 0.1
19:12 16.8 13.7 82 1030.5 2.2 NW 6.0 0.0 0.1
19:19 16.6 13.5 82 1030.5 2.2 E 4.5 0.0 0.1
19:22 16.5 13.4 82 1030.5 2.2 N 4.5 0.0 0.1
19:23 16.5 13.4 82 1030.3 2.2 N 3.8 0.0 0.1
19:24 16.4 13.3 82 1030.4 2.2 NE 3.8 0.0 0.1
19:25 16.4 13.3 82 1030.6 2.2 NE 3.8 0.0 0.1
19:27 16.3 13.2 82 1030.5 2.2 E 3.8 0.0 0.1
19:28 16.3 13.2 82 1030.3 2.2 NE 3.8 0.0 0.1
19:29 16.2 13.1 82 1030.3 2.2 NE 3.1 0.0 0.1
19:30 16.2 13.1 82 1030.2 2.2 NE 3.1 0.0 0.1
19:33 16.1 13.2 83 1030.5 2.2 NE 3.1 0.0 0.1
19:34 16.1 13.2 83 1030.5 2.2 E 3.1 0.0 0.1
19:35 16.0 13.1 83 1030.7 2.2 N 3.8 0.0 0.1
19:36 16.0 13.1 83 1030.6 2.2 E 3.8 0.0 0.1
19:37 16.0 13.1 83 1030.7 2.2 NNE 3.8 0.0 0.1
19:42 15.8 12.9 83 1030.6 2.2 NE 3.8 0.0 0.1
19:46 15.7 12.8 83 1030.5 2.2 N 3.1 0.0 0.1
19:47 15.7 13.0 84 1030.6 2.2 NE 3.1 0.0 0.1
19:48 15.7 13.0 84 1030.6 2.2 E 3.1 0.0 0.1
19:50 15.6 12.9 84 1030.5 2.2 N 3.1 0.0 0.1
19:51 15.6 12.9 84 1030.6 2.2 NE 3.1 0.0 0.1
19:52 15.6 12.9 84 1030.5 2.2 NE 3.1 0.0 0.1
19:58 15.5 13.0 85 1030.4 2.2 N 3.8 0.0 0.1
19:59 15.5 13.0 85 1030.5 2.2 N 3.8 0.0 0.1
20:00 15.5 13.0 85 1030.7 2.2 N 3.8 0.0 0.1
20:01 15.5 13.0 85 1030.7 2.2 N 3.8 0.0 0.1
20:02 15.5 13.0 85 1030.7 2.2 N 3.8 0.0 0.1
20:03 15.5 13.0 85 1030.7 2.2 N 3.8 0.0 0.1
20:04 15.5 13.0 85 1030.6 2.2 N 3.8 0.0 0.1
20:05 15.5 13.0 85 1030.7 2.2 N 3.8 0.0 0.1
20:06 15.5 13.0 85 1030.6 2.2 N 2.2 0.0 0.1
20:08 15.3 12.8 85 1030.6 2.2 NE 3.1 0.0 0.1
20:14 15.2 12.9 86 1030.7 2.2 NE 3.1 0.0 0.1
20:15 15.2 12.9 86 1030.6 2.2 N 3.1 0.0 0.1
20:19 15.1 12.8 86 1030.5 2.2 NE 3.8 0.0 0.1
20:29 15.0 12.9 87 1030.6 2.2 N 4.5 0.0 0.1
20:30 15.0 12.9 87 1030.8 2.2 N 4.5 0.0 0.1
20:31 15.0 12.9 87 1030.6 2.2 N 4.5 0.0 0.1
20:34 15.0 12.9 87 1030.7 2.2 NE 3.1 0.0 0.1
20:36 15.0 12.9 87 1030.7 2.2 NE 3.1 0.0 0.1
20:38 15.0 13.0 88 1030.6 2.2 NE 3.1 0.0 0.1
20:39 14.9 12.9 88 1030.7 2.2 NE 3.1 0.0 0.1
20:40 14.9 12.9 88 1030.6 2.2 N 3.1 0.0 0.1
20:44 14.9 12.9 88 1030.5 2.2 NE 3.1 0.0 0.1
20:46 14.8 12.8 88 1030.5 2.2 N 3.1 0.0 0.1
20:48 14.8 12.8 88 1030.6 2.2 NE 3.1 0.0 0.1
21:07 14.6 12.8 89 1030.6 2.2 N 3.1 0.0 0.1
21:08 14.6 12.8 89 1030.6 2.2 NW 3.1 0.0 0.1
21:23 14.5 12.7 89 1030.6 2.2 E 3.8 0.0 0.1
21:24 14.5 12.7 89 1030.8 2.2 E 3.8 0.0 0.1
21:25 14.5 12.7 89 1030.7 2.2 E 3.8 0.0 0.1
21:26 14.5 12.7 89 1030.8 2.2 E 3.8 0.0 0.1
21:28 14.4 12.6 89 1030.6 2.2 N 3.8 0.0 0.1
21:34 14.4 12.8 90 1030.7 2.2 N 3.8 0.0 0.1
21:35 14.4 12.8 90 1030.7 2.2 N 3.8 0.0 0.1
21:36 14.4 12.8 90 1030.6 2.2 N 3.8 0.0 0.1
21:53 14.4 12.8 90 1030.8 2.2 NE 4.5 0.0 0.1
21:58 14.5 13.1 91 1030.8 2.2 N 4.5 0.0 0.1
21:59 14.5 13.1 91 1030.6 2.2 NE 4.5 0.0 0.1
22:01 14.4 13.0 91 1030.7 2.2 NE 4.5 0.0 0.1
22:02 14.4 13.0 91 1030.8 2.2 NE 3.8 0.0 0.1
22:04 14.4 13.0 91 1030.7 2.2 NE 3.1 0.0 0.1
22:05 14.3 12.9 91 1030.8 2.2 E 3.1 0.0 0.1
22:12 14.2 12.8 91 1030.8 2.2 N 3.1 0.0 0.1
22:15 14.2 12.8 91 1030.7 2.2 N 3.1 0.0 0.1
22:16 14.2 12.8 91 1030.7 2.2 E 3.1 0.0 0.1
22:23 14.2 12.8 91 1030.8 2.2 N 3.1 0.0 0.1
22:24 14.2 12.8 91 1030.6 2.2 N 3.1 0.0 0.1
22:25 14.2 12.8 91 1030.6 2.2 N 3.1 0.0 0.1
22:27 14.2 12.8 91 1030.6 2.2 NW 3.8 0.0 0.1
22:28 14.2 12.8 91 1030.6 2.2 NW 3.8 0.0 0.1
22:29 14.2 12.8 91 1030.6 2.2 N 3.8 0.0 0.1
22:31 14.2 12.8 91 1030.6 2.2 NW 3.8 0.0 0.1
22:32 14.2 12.8 91 1030.6 2.2 NE 3.8 0.0 0.1
22:33 14.2 12.8 91 1030.6 2.2 N 3.8 0.0 0.1
22:35 14.2 12.8 91 1030.4 2.2 NE 3.8 0.0 0.1
22:38 14.2 12.8 91 1030.5 2.2 N 3.1 0.0 0.1
22:42 14.2 12.8 91 1030.8 2.2 N 3.1 0.0 0.1
22:48 14.1 12.7 91 1030.7 2.2 N 3.1 0.0 0.1
23:07 13.9 12.5 91 1030.4 2.2 N 2.2 0.0 0.1
23:08 13.9 12.5 91 1030.4 2.2 N 2.2 0.0 0.1
23:09 13.9 12.5 91 1030.4 2.2 NW 2.2 0.0 0.1
23:10 13.9 12.5 91 1030.4 2.2 NW 2.2 0.0 0.1
23:26 13.9 12.6 92 1030.5 2.2 NE 3.1 0.0 0.1
23:29 13.9 12.6 92 1030.3 2.2 WNW 3.1 0.0 0.1
23:30 13.9 12.6 92 1030.4 2.2 N 3.1 0.0 0.1
23:31 13.9 12.6 92 1030.4 2.2 N 3.1 0.0 0.1
23:32 13.9 12.6 92 1030.4 2.2 N 3.1 0.0 0.1
23:34 13.8 12.5 92 1030.4 2.2 NE 3.1 0.0 0.1
23:35 13.8 12.5 92 1030.4 2.2 NE 3.1 0.0 0.1
23:36 13.8 12.5 92 1030.4 2.2 NE 2.2 0.0 0.1
23:37 13.8 12.5 92 1030.4 2.2 NE 2.2 0.0 0.1
23:38 13.8 12.5 92 1030.6 2.2 NE 2.2 0.0 0.1
23:40 13.8 12.5 92 1030.5 2.2 N 2.2 0.0 0.1
23:44 13.8 12.5 92 1030.6 2.2 NE 3.1 0.0 0.1
23:45 13.8 12.5 92 1030.3 2.2 NE 3.1 0.0 0.1
23:47 13.8 12.5 92 1030.4 2.2 N 3.8 0.0 0.1
23:49 13.7 12.4 92 1030.6 2.2 NE 3.8 0.0 0.1
23:51 13.7 12.4 92 1030.6 2.2 NE 3.8 0.0 0.1
23:52 13.7 12.4 92 1030.6 2.2 E 3.8 0.0 0.1
23:57 13.6 12.3 92 1030.7 2.2 NE 3.1 0.0 0.1
23:58 13.6 12.3 92 1030.7 2.2 E 3.1 0.0 0.1
23:59 13.6 12.3 92 1030.5 2.2 E 3.1 0.0 0.1
00:00 13.8 12.4 91 1029.3 3.1 NE 3.8 0.0 0.0
00:01 13.8 12.4 91 1029.2 3.1 N 3.8 0.0 0.0
00:02 13.8 12.4 91 1029.4 3.1 N 3.8 0.0 0.0
00:03 13.8 12.4 91 1029.1 3.1 NNW 3.8 0.0 0.0
00:04 13.8 12.4 91 1029.3 3.1 NNW 3.1 0.0 0.0
00:05 13.8 12.4 91 1029.2 3.1 N 3.1 0.0 0.0
00:06 13.8 12.4 91 1029.2 3.1 NE 3.1 0.0 0.0
00:10 13.8 12.4 91 1029.3 3.1 N 3.8 0.0 0.0
00:14 13.8 12.5 92 1029.5 3.1 S 4.5 0.0 0.0
00:18 13.8 12.5 92 1029.5 3.1 N 4.5 0.0 0.0
00:19 13.8 12.5 92 1029.6 3.1 NE 4.5 0.0 0.0
00:20 13.8 12.5 92 1029.5 3.1 NE 4.5 0.0 0.0
00:24 13.8 12.5 92 1029.4 3.1 N 4.5 0.0 0.0
00:37 13.8 12.5 92 1029.5 3.1 N 4.5 0.0 0.0
00:56 13.6 12.3 92 1029.5 3.1 E 3.1 0.0 0.0
01:11 13.6 12.3 92 1029.4 3.1 NNW 3.1 0.0 0.0
01:12 13.6 12.3 92 1029.5 3.1 E 3.1 0.0 0.0
01:26 13.5 12.2 92 1029.3 3.1 W 3.1 0.0 0.0
01:27 13.5 12.2 92 1029.3 3.1 W 3.1 0.0 0.0
01:28 13.5 12.2 92 1029.4 3.1 E 3.1 0.0 0.0
04:06 12.1 11.5 96 1029.5 3.1 NW 3.1 0.0 0.0
04:07 12.1 11.5 96 1029.3 3.1 N 3.1 0.0 0.0
04:08 12.1 11.5 96 1029.4 3.1 N 3.1 0.0 0.0
04:09 12.1 11.5 96 1029.4 3.1 E 3.1 0.0 0.0
05:46 11.8 11.5 98 1029.6 3.1 NW 3.1 0.0 0.0
05:47 11.9 11.6 98 1029.7 3.1 NE 3.1 0.0 0.0
08:18 13.4 12.9 97 1030.2 3.1 N 3.1 0.0 0.1
08:19 13.4 12.9 97 1030.4 3.1 NW 3.1 0.0 0.1
08:20 13.4 12.9 97 1030.4 3.1 NW 3.1 0.0 0.1
08:26 13.6 13.3 98 1030.3 3.1 S 3.8 0.0 0.1
08:29 13.6 13.3 98 1030.4 3.1 NE 3.8 0.0 0.1
08:31 13.7 13.4 98 1030.3 3.1 NW 3.8 0.0 0.1
08:37 13.8 13.5 98 1030.4 3.1 N 3.8 0.0 0.1
08:47 14.2 14.1 99 1030.3 3.1 N 4.5 0.0 0.1
08:49 14.3 14.2 99 1030.4 3.1 NNE 4.5 0.0 0.1
08:50 14.3 14.2 99 1030.3 3.1 NE 4.5 0.0 0.1
08:51 14.3 14.2 99 1030.4 3.1 N 4.5 0.0 0.1
08:52 14.3 14.2 99 1030.6 3.1 N 4.5 0.0 0.1
08:54 14.4 14.3 99 1030.6 3.1 NE 3.8 0.0 0.1
08:55 14.4 14.3 99 1030.4 3.1 E 3.8 0.0 0.1
08:57 14.5 14.4 99 1030.5 3.1 N 3.8 0.0 0.1
09:08 14.6 14.5 99 1030.6 3.1 NE 5.4 0.0 0.1
09:12 14.6 14.5 99 1030.6 3.1 N 5.4 0.0 0.1
09:22 14.7 14.6 99 1030.6 3.1 N 6.0 0.0 0.1
09:30 14.7 14.6 99 1030.7 3.1 N 6.9 0.0 0.1
09:34 14.7 14.6 99 1030.8 3.1 NW 4.5 0.0 0.1
09:37 14.8 14.7 99 1030.8 3.1 NW 3.8 0.0 0.1
09:39 14.8 14.7 99 1030.4 3.1 NE 3.8 0.0 0.1
09:49 15.0 15.0 100 1030.6 3.1 N 6.0 0.0 0.1
09:50 15.0 15.0 100 1030.7 3.1 E 6.0 0.0 0.1
09:51 15.0 15.0 100 1030.7 3.1 N 6.0 0.0 0.1
10:02 15.4 15.4 100 1030.9 3.1 NE 5.4 0.0 0.1
10:14 15.8 15.8 100 1030.7 3.1 NE 5.4 0.0 0.1
10:22 16.0 15.9 99 1031.1 3.1 N 5.4 0.0 0.1
10:29 16.3 16.2 99 1030.9 3.1 NE 6.0 0.0 0.1
10:45 16.9 16.1 95 1031.0 3.1 N 6.9 0.0 0.1
11:04 18.3 15.0 81 1031.0 3.1 NE 5.4 0.0 0.1
11:08 18.5 15.0 80 1031.1 3.1 NW 6.0 0.0 0.1
11:17 19.1 15.4 79 1031.2 3.1 NNW 6.9 0.0 0.1
11:18 19.1 15.4 79 1031.3 3.1 E 6.9 0.0 0.1
11:33 19.6 15.3 76 1031.2 3.1 N 5.4 0.0 0.1
11:34 19.6 15.3 76 1031.1 3.1 N 4.5 0.0 0.1
11:35 19.6 15.3 76 1031.3 3.1 N 4.5 0.0 0.1
11:37 19.7 15.4 76 1031.2 3.1 N 4.5 0.0 0.1
11:47 20.0 15.7 76 1031.2 3.1 N 6.9 0.0 0.1
11:56 19.6 14.6 73 1031.2 3.1 W 4.5 0.0 0.1
11:59 19.8 15.0 74 1031.3 3.1 NE 6.0 0.0 0.1
12:00 19.9 15.1 74 1031.3 3.1 SW 6.0 0.0 0.1
12:01 19.9 15.1 74 1031.1 3.1 SW 6.0 0.0 0.1
12:02 19.9 15.1 74 1031.2 3.1 SW 6.0 0.0 0.1
12:03 19.9 15.1 74 1031.1 3.1 SW 6.0 0.0 0.1
12:04 19.9 15.1 74 1031.3 3.1 SW 6.0 0.0 0.1
12:05 19.9 15.1 74 1031.3 3.1 SW 6.0 0.0 0.1
12:13 20.1 14.7 71 1031.2 3.1 W 6.0 0.0 0.1
12:14 20.1 14.7 71 1031.3 3.1 N 6.0 0.0 0.1
12:15 20.1 14.7 71 1030.9 3.1 N 6.0 0.0 0.1
12:16 20.1 14.7 71 1031.3 3.1 N 6.0 0.0 0.1
12:20 20.5 15.1 71 1031.4 3.1 NW 6.0 0.0 0.1
12:29 20.8 15.4 71 1031.0 3.1 N 6.9 0.0 0.1
12:30 20.8 15.4 71 1031.2 3.1 NW 6.9 0.0 0.1
12:31 20.7 15.3 71 1031.4 3.1 N 6.9 0.0 0.1
12:36 20.6 15.2 71 1031.3 3.1 W 5.4 0.0 0.1
12:37 20.6 15.2 71 1031.3 3.1 N 4.5 0.0 0.1
12:45 20.6 15.2 71 1031.2 3.1 N 6.9 0.0 0.1
12:47 20.6 15.0 70 1031.0 3.1 NW 6.9 0.0 0.1
13:07 20.4 15.0 71 1031.0 3.1 W 6.9 0.0 0.1
13:08 20.4 15.0 71 1031.0 3.1 E 6.9 0.0 0.1
13:19 20.0 14.6 71 1031.1 3.1 NW 6.9 0.0 0.1
13:30 20.8 15.4 71 1031.2 3.1 N 5.4 0.0 0.1
13:31 20.9 15.2 70 1031.1 3.1 W 5.4 0.0 0.1
13:42 20.6 14.7 69 1031.0 3.1 N 6.9 0.0 0.1
13:43 20.6 15.0 70 1031.3 3.1 N 5.4 0.0 0.1
13:50 20.0 14.6 71 1031.3 3.1 W 6.0 0.0 0.1
13:58 20.1 14.9 72 1031.1 3.1 N 6.0 0.0 0.1
14:09 21.2 15.5 70 1031.2 3.1 NW 6.9 0.0 0.1
14:11 21.2 15.5 70 1030.9 3.1 NNE 6.9 0.0 0.1
14:14 21.6 15.9 70 1031.1 3.1 E 6.9 0.0 0.1
14:27 21.9 15.0 65 1031.1 3.1 W 6.0 0.0 0.1
14:28 21.8 14.9 65 1031.0 3.1 N 6.0 0.0 0.1
14:29 21.7 14.8 65 1030.9 3.1 NW 6.0 0.0 0.1
14:31 21.5 14.9 66 1031.0 3.1 N 6.0 0.0 0.1
14:36 20.9 14.1 65 1030.8 3.1 SW 4.5 0.0 0.1
14:42 20.7 14.6 68 1030.9 3.1 NE 6.0 0.0 0.1
14:43 20.7 14.6 68 1030.9 3.1 NE 6.0 0.0 0.1
14:44 20.8 14.9 69 1030.8 3.1 NW 6.0 0.0 0.1
14:47 21.1 15.2 69 1030.7 3.1 NE 6.0 0.0 0.1
14:51 21.1 15.0 68 1030.9 3.1 N 5.4 0.0 0.1
14:53 21.0 14.9 68 1030.7 3.1 NNW 5.4 0.0 0.1
15:00 20.6 14.7 69 1030.8 3.1 NW 5.4 0.0 0.1
15:01 20.6 14.7 69 1030.8 3.1 NW 5.4 0.0 0.1
15:02 20.6 14.7 69 1030.7 3.1 NW 5.4 0.0 0.1
17:39 20.1 14.5 70 1030.5 3.1 E 6.9 0.0 0.1
18:15 19.2 14.3 73 1030.5 3.1 W 5.4 0.0 0.1
18:18 19.1 14.2 73 1030.5 3.1 NW 4.5 0.0 0.1
18:25 18.8 14.1 74 1030.5 3.1 N 4.5 0.0 0.1
18:57 17.2 13.7 80 1030.4 3.1 N 8.3 0.0 0.1
19:00 17.2 13.9 81 1030.3 3.1 NE 8.3 0.0 0.1
19:01 17.2 13.9 81 1030.3 3.1 NE 8.3 0.0 0.1
19:02 17.2 13.9 81 1030.6 3.1 NE 6.9 0.0 0.1
19:06 17.0 13.7 81 1030.4 3.1 NW 6.0 0.0 0.1
19:17 16.7 13.6 82 1030.2 3.1 E 4.5 0.0 0.1
19:18 16.6 13.5 82 1030.4 3.1 NE 4.5 0.0 0.1
19:21 16.5 13.4 82 1030.2 3.1 E 4.5 0.0 0.1
19:26 16.4 13.3 82 1030.3 3.1 E 3.8 0.0 0.1
19:31 16.2 13.1 82 1030.5 3.1 NE 3.1 0.0 0.1
19:32 16.1 13.0 82 1030.6 3.1 NE 3.1 0.0 0.1
19:39 15.9 13.0 83 1030.5 3.1 N 3.8 0.0 0.1
19:40 15.9 13.0 83 1030.6 3.1 NE 3.8 0.0 0.1
19:41 15.9 13.0 83 1030.7 3.1 NE 3.8 0.0 0.1
19:43 15.8 12.9 83 1030.6 3.1 NE 3.8 0.0 0.1
19:44 15.8 12.9 83 1030.6 3.1 NE 3.8 0.0 0.1
19:45 15.8 12.9 83 1030.6 3.1 NE 3.8 0.0 0.1
19:49 15.7 13.0 84 1030.3 3.1 E 3.1 0.0 0.1
19:53 15.6 12.9 84 1030.5 3.1 N 3.1 0.0 0.1
20:07 15.3 12.8 85 1030.5 3.1 N 3.1 0.0 0.1
20:09 15.3 12.8 85 1030.7 3.1 N 3.1 0.0 0.1
20:10 15.3 12.8 85 1030.5 3.1 N 3.1 0.0 0.1
20:13 15.2 12.9 86 1030.5 3.1 N 3.1 0.0 0.1
20:18 15.1 12.8 86 1030.6 3.1 N 3.8 0.0 0.1
20:26 15.1 12.8 86 1030.7 3.1 N 4.5 0.0 0.1
20:28 15.0 12.9 87 1030.6 3.1 E 4.5 0.0 0.1
20:33 15.0 12.9 87 1030.6 3.1 NW 4.5 0.0 0.1
20:37 15.0 12.9 87 1030.6 3.1 N 3.1 0.0 0.1
20:41 14.9 12.9 88 1030.5 3.1 N 3.1 0.0 0.1
20:42 14.9 12.9 88 1030.7 3.1 N 3.1 0.0 0.1
20:43 14.9 12.9 88 1030.6 3.1 NNE 3.1 0.0 0.1
20:45 14.9 12.9 88 1030.7 3.1 E 3.1 0.0 0.1
20:49 14.8 12.8 88 1030.5 3.1 NE 3.1 0.0 0.1
20:53 14.7 12.7 88 1030.6 3.1 NE 3.8 0.0 0.1
20:54 14.7 12.7 88 1030.4 3.1 NE 3.8 0.0 0.1
20:55 14.7 12.7 88 1030.4 3.1 E 3.8 0.0 0.1
20:57 14.7 12.7 88 1030.7 3.1 NE 3.8 0.0 0.1
20:58 14.7 12.7 88 1030.5 3.1 N 3.8 0.0 0.1
20:59 14.7 12.9 89 1030.4 3.1 N 3.8 0.0 0.1
21:00 14.7 12.9 89 1030.4 3.1 NE 3.8 0.0 0.1
21:01 14.7 12.9 89 1030.5 3.1 NE 3.8 0.0 0.1
21:02 14.7 12.9 89 1030.7 3.1 NE 3.8 0.0 0.1
21:03 14.7 12.9 89 1030.4 3.1 NE 3.8 0.0 0.1
21:04 14.7 12.9 89 1030.7 3.1 NE 3.8 0.0 0.1
21:05 14.7 12.9 89 1030.5 3.1 NE 3.8 0.0 0.1
21:06 14.7 12.9 89 1030.4 3.1 NE 3.8 0.0 0.1
21:10 14.6 12.8 89 1030.7 3.1 NE 3.1 0.0 0.1
21:13 14.6 12.8 89 1030.6 3.1 E 3.8 0.0 0.1
21:14 14.6 12.8 89 1030.5 3.1 NE 3.8 0.0 0.1
21:15 14.6 12.8 89 1030.6 3.1 NE 3.8 0.0 0.1
21:17 14.5 12.7 89 1030.7 3.1 NE 3.8 0.0 0.1
21:18 14.5 12.7 89 1030.5 3.1 E 3.8 0.0 0.1
21:20 14.5 12.7 89 1030.7 3.1 NE 3.8 0.0 0.1
21:21 14.5 12.7 89 1030.5 3.1 E 3.8 0.0 0.1
21:22 14.5 12.7 89 1030.6 3.1 N 3.8 0.0 0.1
21:27 14.4 12.6 89 1030.9 3.1 NE 3.8 0.0 0.1
21:32 14.4 12.8 90 1030.9 3.1 NE 3.8 0.0 0.1
21:33 14.4 12.8 90 1031.0 3.1 NE 3.8 0.0 0.1
21:37 14.4 12.8 90 1030.7 3.1 NE 3.8 0.0 0.1
21:39 14.4 12.8 90 1030.8 3.1 NE 3.8 0.0 0.1
21:42 14.4 12.8 90 1030.7 3.1 E 4.5 0.0 0.1
21:43 14.4 12.8 90 1030.7 3.1 E 4.5 0.0 0.1
21:44 14.4 12.8 90 1030.9 3.1 NE 4.5 0.0 0.1
21:52 14.4 12.8 90 1030.7 3.1 N 4.5 0.0 0.1
21:55 14.5 12.9 90 1030.8 3.1 NE 4.5 0.0 0.1
21:56 14.5 13.1 91 1030.6 3.1 NE 4.5 0.0 0.1
21:57 14.5 13.1 91 1030.7 3.1 NNE 4.5 0.0 0.1
22:03 14.4 13.0 91 1030.7 3.1 E 3.8 0.0 0.1
22:10 14.2 12.8 91 1030.7 3.1 N 3.1 0.0 0.1
22:11 14.2 12.8 91 1030.7 3.1 N 3.1 0.0 0.1
22:17 14.2 12.8 91 1030.9 3.1 NE 3.1 0.0 0.1
22:18 14.2 12.8 91 1030.7 3.1 N 3.1 0.0 0.1
22:19 14.2 12.8 91 1030.7 3.1 N 3.1 0.0 0.1
22:20 14.2 12.8 91 1030.7 3.1 N 3.1 0.0 0.1
22:21 14.2 12.8 91 1030.7 3.1 N 3.1 0.0 0.1
22:36 14.2 12.8 91 1030.5 3.1 NE 3.8 0.0 0.1
22:37 14.2 12.8 91 1030.4 3.1 NE 3.1 0.0 0.1
22:41 14.2 12.8 91 1030.6 3.1 N 3.1 0.0 0.1
22:43 14.2 12.8 91 1030.5 3.1 NE 3.1 0.0 0.1
22:44 14.2 12.8 91 1030.4 3.1 N 3.1 0.0 0.1
22:45 14.2 12.8 91 1030.6 3.1 N 3.1 0.0 0.1
22:46 14.2 12.8 91 1030.7 3.1 N 3.1 0.0 0.1
22:47 14.1 12.7 91 1030.4 3.1 N 3.1 0.0 0.1
23:25 13.9 12.6 92 1030.3 3.1 N 3.1 0.0 0.1
23:43 13.8 12.5 92 1030.6 3.1 N 3.1 0.0 0.1
23:48 13.7 12.4 92 1030.7 3.1 N 3.8 0.0 0.1
23:53 13.7 12.4 92 1030.7 3.1 NE 3.8 0.0 0.1
23:54 13.7 12.4 92 1030.7 3.1 NE 3.8 0.0 0.1
23:55 13.7 12.4 92 1030.7 3.1 NE 3.8 0.0 0.1
23:56 13.7 12.4 92 1030.6 3.1 NE 3.8 0.0 0.1
00:09 13.8 12.4 91 1029.3 3.8 NW 3.8 0.0 0.0
00:13 13.8 12.5 92 1029.4 3.8 NW 4.5 0.0 0.0
00:25 13.8 12.5 92 1029.6 3.8 E 4.5 0.0 0.0
00:29 13.8 12.5 92 1029.5 3.8 NW 4.5 0.0 0.0
00:32 13.8 12.5 92 1029.5 3.8 N 4.5 0.0 0.0
00:33 13.8 12.5 92 1029.3 3.8 N 4.5 0.0 0.0
00:34 13.8 12.5 92 1029.4 3.8 N 4.5 0.0 0.0
08:24 13.5 13.2 98 1030.4 3.8 N 3.8 0.0 0.1
08:25 13.5 13.2 98 1030.1 3.8 NW 3.8 0.0 0.1
08:39 13.9 13.6 98 1030.3 3.8 N 4.5 0.0 0.1
08:41 14.0 13.9 99 1030.4 3.8 NW 4.5 0.0 0.1
08:42 14.0 13.9 99 1030.3 3.8 N 4.5 0.0 0.1
08:44 14.1 14.0 99 1030.5 3.8 NW 4.5 0.0 0.1
08:45 14.1 14.0 99 1030.3 3.8 WNW 4.5 0.0 0.1
08:53 14.4 14.3 99 1030.6 3.8 N 4.5 0.0 0.1
09:14 14.7 14.6 99 1030.5 3.8 N 5.4 0.0 0.1
09:16 14.7 14.6 99 1030.6 3.8 NW 4.5 0.0 0.1
09:17 14.7 14.6 99 1030.5 3.8 NE 4.5 0.0 0.1
09:20 14.7 14.6 99 1030.6 3.8 NE 4.5 0.0 0.1
09:23 14.7 14.6 99 1030.5 3.8 N 6.0 0.0 0.1
09:25 14.7 14.6 99 1030.4 3.8 NE 6.9 0.0 0.1
09:27 14.7 14.6 99 1030.6 3.8 NE 6.9 0.0 0.1
09:28 14.7 14.6 99 1030.8 3.8 N 6.9 0.0 0.1
09:31 14.7 14.6 99 1030.6 3.8 NE 6.9 0.0 0.1
09:32 14.7 14.6 99 1030.6 3.8 NW 6.9 0.0 0.1
09:35 14.7 14.6 99 1030.7 3.8 NW 4.5 0.0 0.1
09:36 14.8 14.7 99 1030.6 3.8 NE 3.8 0.0 0.1
09:42 14.9 14.8 99 1030.7 3.8 NE 6.0 0.0 0.1
09:45 14.9 14.8 99 1030.9 3.8 NW 6.0 0.0 0.1
09:52 15.1 15.1 100 1030.8 3.8 E 6.0 0.0 0.1
09:53 15.1 15.1 100 1030.7 3.8 N 6.0 0.0 0.1
10:03 15.4 15.4 100 1030.8 3.8 NNE 5.4 0.0 0.1
10:04 15.4 15.4 100 1030.8 3.8 NNE 5.4 0.0 0.1
10:05 15.5 15.5 100 1030.9 3.8 SW 5.4 0.0 0.1
10:06 15.5 15.5 100 1030.6 3.8 NE 5.4 0.0 0.1
10:17 15.9 15.9 100 1030.9 3.8 NW 5.4 0.0 0.1
10:19 15.9 15.8 99 1030.9 3.8 N 5.4 0.0 0.1
10:20 15.9 15.8 99 1030.9 3.8 N 5.4 0.0 0.1
10:23 16.1 16.0 99 1030.7 3.8 NE 5.4 0.0 0.1
10:24 16.1 16.0 99 1031.0 3.8 N 5.4 0.0 0.1
10:25 16.1 16.0 99 1031.0 3.8 NW 5.4 0.0 0.1
10:30 16.3 16.2 99 1030.9 3.8 W 6.0 0.0 0.1
10:31 16.3 16.2 99 1031.0 3.8 NE 6.0 0.0 0.1
10:33 16.4 16.1 98 1031.1 3.8 NE 6.0 0.0 0.1
10:39 16.6 16.1 97 1031.1 3.8 E 6.9 0.0 0.1
10:49 17.2 16.2 94 1031.2 3.8 NNE 5.4 0.0 0.1
10:50 17.2 16.1 93 1031.1 3.8 NW 5.4 0.0 0.1
10:52 17.4 16.1 92 1031.1 3.8 NW 5.4 0.0 0.1
10:56 17.8 15.1 84 1031.4 3.8 NNE 7.6 0.0 0.1
10:57 17.9 15.0 83 1031.0 3.8 NE 7.6 0.0 0.1
11:02 18.3 15.0 81 1031.1 3.8 S 7.6 0.0 0.1
11:03 18.3 15.0 81 1031.1 3.8 S 7.6 0.0 0.1
11:06 18.4 14.9 80 1031.2 3.8 N 6.0 0.0 0.1
11:07 18.5 15.0 80 1031.3 3.8 NW 6.0 0.0 0.1
11:11 18.8 15.3 80 1031.1 3.8 NW 6.9 0.0 0.1
11:13 18.9 15.4 80 1031.0 3.8 NW 6.9 0.0 0.1
11:16 19.0 15.3 79 1031.1 3.8 NE 6.9 0.0 0.1
11:21 19.2 15.1 77 1031.1 3.8 E 5.4 0.0 0.1
11:27 19.4 15.3 77 1031.1 3.8 N 5.4 0.0 0.1
11:31 19.5 15.2 76 1031.1 3.8 N 5.4 0.0 0.1
11:32 19.5 15.2 76 1031.0 3.8 N 5.4 0.0 0.1
11:36 19.6 15.3 76 1031.3 3.8 N 4.5 0.0 0.1
11:39 19.8 15.3 75 1031.1 3.8 E 6.9 0.0 0.1
11:42 19.9 15.4 75 1031.1 3.8 WNW 6.9 0.0 0.1
11:43 19.9 15.4 75 1031.1 3.8 WNW 6.9 0.0 0.1
11:44 20.0 15.7 76 1031.0 3.8 W 6.9 0.0 0.1
11:45 20.0 15.9 77 1031.2 3.8 SW 6.9 0.0 0.1
11:46 20.0 15.9 77 1031.1 3.8 NW 6.9 0.0 0.1
11:51 19.8 15.3 75 1031.1 3.8 NNW 4.5 0.0 0.1
11:52 19.8 15.0 74 1031.4 3.8 NW 4.5 0.0 0.1
11:54 19.7 14.7 73 1031.2 3.8 N 4.5 0.0 0.1
11:55 19.6 14.6 73 1031.3 3.8 W 4.5 0.0 0.1
12:10 20.0 14.4 70 1031.3 3.8 N 6.0 0.0 0.1
12:11 20.0 14.6 71 1031.4 3.8 N 6.0 0.0 0.1
12:12 20.0 14.6 71 1031.3 3.8 NW 6.0 0.0 0.1
12:17 20.2 14.8 71 1031.2 3.8 W 6.0 0.0 0.1
12:18 20.2 14.8 71 1031.2 3.8 W 6.0 0.0 0.1
12:19 20.4 14.8 70 1031.4 3.8 S 6.0 0.0 0.1
12:24 20.9 15.5 71 1031.3 3.8 NW 6.9 0.0 0.1
12:32 20.7 15.3 71 1031.4 3.8 NW 6.9 0.0 0.1
12:34 20.6 15.2 71 1031.2 3.8 N 5.4 0.0 0.1
12:35 20.6 15.2 71 1031.3 3.8 N 5.4 0.0 0.1
12:40 20.6 15.2 71 1031.1 3.8 N 6.9 0.0 0.1
12:41 20.6 15.2 71 1031.3 3.8 NW 6.9 0.0 0.1
12:42 20.6 15.0 70 1031.3 3.8 NW 6.9 0.0 0.1
12:43 20.6 15.0 70 1031.3 3.8 NW 6.9 0.0 0.1
12:44 20.5 15.1 71 1031.1 3.8 NW 6.9 0.0 0.1
12:50 20.4 14.8 70 1031.4 3.8 NW 6.0 0.0 0.1
12:58 20.4 15.0 71 1031.1 3.8 NW 7.6 0.0 0.1
12:59 20.4 15.0 71 1031.1 3.8 NW 7.6 0.0 0.1
13:04 20.3 14.9 71 1031.0 3.8 NE 7.6 0.0 0.1
13:25 20.3 15.1 72 1031.4 3.8 N 6.0 0.0 0.1
13:33 20.9 15.2 70 1031.1 3.8 SW 6.9 0.0 0.1
13:34 20.9 15.2 70 1031.1 3.8 W 6.9 0.0 0.1
13:35 20.9 15.2 70 1031.2 3.8 N 6.9 0.0 0.1
13:44 20.5 14.9 70 1031.3 3.8 N 5.4 0.0 0.1
13:53 19.9 14.7 72 1031.3 3.8 N 6.0 0.0 0.1
13:54 20.0 14.6 71 1031.0 3.8 N 6.0 0.0 0.1
13:57 20.1 14.9 72 1031.2 3.8 N 6.0 0.0 0.1
14:18 21.7 15.6 68 1031.0 3.8 NW 5.4 0.0 0.1
14:19 21.7 15.6 68 1031.0 3.8 NW 5.4 0.0 0.1
14:30 21.6 15.0 66 1030.9 3.8 SW 6.0 0.0 0.1
14:32 21.4 14.8 66 1031.0 3.8 SW 6.0 0.0 0.1
14:35 20.9 14.1 65 1030.9 3.8 NW 6.0 0.0 0.1
14:41 20.7 14.4 67 1030.9 3.8 NW 6.0 0.0 0.1
14:45 20.9 15.0 69 1030.8 3.8 NE 6.0 0.0 0.1
14:46 21.0 15.1 69 1030.8 3.8 N 6.0 0.0 0.1
14:50 21.2 15.1 68 1030.9 3.8 NW 6.0 0.0 0.1
14:58 20.7 14.8 69 1030.7 3.8 NE 5.4 0.0 0.1
15:04 20.3 14.4 69 1030.8 3.8 NW 6.9 0.0 0.1
15:06 20.1 14.5 70 1031.1 3.8 N 6.9 0.0 0.1
15:59 21.9 15.3 66 1030.5 3.8 NE 8.3 0.0 0.1
16:00 21.9 15.3 66 1030.6 3.8 NE 8.3 0.0 0.1
16:01 21.9 15.3 66 1030.6 3.8 NE 8.3 0.0 0.1
16:02 21.9 15.3 66 1030.6 3.8 NE 8.3 0.0 0.1
16:03 21.9 15.3 66 1030.6 3.8 NE 8.3 0.0 0.1
16:04 21.9 15.3 66 1030.6 3.8 NE 8.3 0.0 0.1
16:05 21.9 15.3 66 1030.6 3.8 NE 8.3 0.0 0.1
16:28 21.6 15.0 66 1030.6 3.8 NW 6.9 0.0 0.1
16:48 21.3 15.2 68 1030.7 3.8 N 7.6 0.0 0.1
16:49 21.3 15.2 68 1030.7 3.8 N 7.6 0.0 0.1
16:56 21.1 15.4 70 1030.6 3.8 NW 6.0 0.0 0.1
16:57 21.1 15.2 69 1030.9 3.8 E 6.0 0.0 0.1
17:19 20.6 14.7 69 1030.6 3.8 NW 7.6 0.0 0.1
17:24 20.5 14.6 69 1030.4 3.8 SW 6.9 0.0 0.1
17:36 20.2 14.8 71 1030.5 3.8 NW 6.9 0.0 0.1
17:37 20.2 14.8 71 1030.4 3.8 NW 6.9 0.0 0.1
18:07 19.4 14.4 73 1030.3 3.8 NW 5.4 0.0 0.1
18:13 19.4 14.4 73 1030.5 3.8 N 5.4 0.0 0.1
18:17 19.2 14.3 73 1030.6 3.8 W 4.5 0.0 0.1
18:19 19.0 14.1 73 1030.5 3.8 E 4.5 0.0 0.1
18:39 17.9 13.2 74 1030.4 3.8 N 6.9 0.0 0.1
18:41 17.8 13.3 75 1030.4 3.8 N 6.9 0.0 0.1
18:43 17.7 13.2 75 1030.3 3.8 NW 6.9 0.0 0.1
18:47 17.6 13.3 76 1030.4 3.8 N 6.9 0.0 0.1
18:52 17.4 13.9 80 1030.5 3.8 N 8.3 0.0 0.1
19:10 16.9 13.8 82 1030.5 3.8 N 6.0 0.0 0.1
19:14 16.8 13.7 82 1030.3 3.8 N 6.0 0.0 0.1
19:15 16.7 13.6 82 1030.3 3.8 N 6.0 0.0 0.1
19:54 15.6 12.9 84 1030.5 3.8 NE 3.8 0.0 0.1
19:55 15.5 12.8 84 1030.6 3.8 N 3.8 0.0 0.1
20:17 15.2 12.9 86 1030.3 3.8 NE 3.8 0.0 0.1
20:50 14.7 12.7 88 1030.6 3.8 E 3.8 0.0 0.1
20:56 14.7 12.7 88 1030.6 3.8 E 3.8 0.0 0.1
21:11 14.6 12.8 89 1030.4 3.8 NE 3.8 0.0 0.1
21:12 14.6 12.8 89 1030.6 3.8 E 3.8 0.0 0.1
21:19 14.5 12.7 89 1030.7 3.8 NE 3.8 0.0 0.1
21:29 14.4 12.6 89 1030.8 3.8 NE 3.8 0.0 0.1
21:31 14.4 12.6 89 1030.6 3.8 E 3.8 0.0 0.1
21:38 14.4 12.8 90 1030.8 3.8 E 3.8 0.0 0.1
21:40 14.4 12.8 90 1030.7 3.8 E 3.8 0.0 0.1
21:41 14.4 12.8 90 1030.8 3.8 SE 4.5 0.0 0.1
21:45 14.4 12.8 90 1030.8 3.8 NE 4.5 0.0 0.1
21:49 14.4 12.8 90 1030.8 3.8 NE 4.5 0.0 0.1
21:51 14.4 12.8 90 1030.7 3.8 E 4.5 0.0 0.1
21:54 14.5 12.9 90 1030.7 3.8 NE 4.5 0.0 0.1
22:26 14.2 12.8 91 1030.6 3.8 NE 3.8 0.0 0.1
23:46 13.8 12.5 92 1030.5 3.8 E 3.8 0.0 0.1
00:28 13.8 12.5 92 1029.4 4.5 N 4.5 0.0 0.0
00:57 13.6 12.3 92 1029.5 4.5 N 4.5 0.0 0.0
08:38 13.9 13.6 98 1030.4 4.5 N 4.5 0.0 0.1
08:40 13.9 13.6 98 1030.3 4.5 N 4.5 0.0 0.1
08:43 14.1 14.0 99 1030.4 4.5 E 4.5 0.0 0.1
09:11 14.6 14.5 99 1030.5 4.5 NW 5.4 0.0 0.1
09:18 14.7 14.6 99 1030.3 4.5 N 4.5 0.0 0.1
09:19 14.7 14.6 99 1030.3 4.5 N 4.5 0.0 0.1
09:46 15.0 15.0 100 1030.7 4.5 NW 6.0 0.0 0.1
09:54 15.1 15.1 100 1030.7 4.5 N 6.0 0.0 0.1
09:55 15.2 15.2 100 1030.6 4.5 NE 6.0 0.0 0.1
09:57 15.2 15.2 100 1030.7 4.5 E 6.0 0.0 0.1
10:07 15.5 15.5 100 1030.8 4.5 SSE 5.4 0.0 0.1
10:09 15.6 15.6 100 1030.9 4.5 N 5.4 0.0 0.1
10:10 15.6 15.6 100 1030.8 4.5 NE 5.4 0.0 0.1
10:12 15.7 15.7 100 1030.8 4.5 E 5.4 0.0 0.1
10:15 15.8 15.8 100 1030.9 4.5 NW 5.4 0.0 0.1
10:16 15.9 15.9 100 1030.8 4.5 N 5.4 0.0 0.1
10:18 15.9 15.8 99 1030.8 4.5 N 5.4 0.0 0.1
10:34 16.4 16.1 98 1031.0 4.5 NW 6.0 0.0 0.1
10:35 16.4 16.1 98 1030.8 4.5 NW 6.0 0.0 0.1
10:36 16.5 16.2 98 1031.1 4.5 NW 6.0 0.0 0.1
10:40 16.6 16.1 97 1031.0 4.5 W 6.9 0.0 0.1
10:41 16.6 16.0 96 1031.1 4.5 NW 6.9 0.0 0.1
10:44 16.8 16.0 95 1030.9 4.5 NW 6.9 0.0 0.1
10:47 17.1 16.3 95 1031.1 4.5 N 6.9 0.0 0.1
10:48 17.1 16.3 95 1031.1 4.5 N 6.9 0.0 0.1
10:54 17.6 15.4 87 1031.1 4.5 NW 7.6 0.0 0.1
10:55 17.7 15.2 85 1031.2 4.5 N 7.6 0.0 0.1
11:14 18.9 15.2 79 1031.1 4.5 N 6.9 0.0 0.1
11:15 18.9 15.2 79 1031.3 4.5 N 6.9 0.0 0.1
11:19 19.1 15.4 79 1031.2 4.5 N 6.9 0.0 0.1
11:23 19.2 15.1 77 1031.1 4.5 W 5.4 0.0 0.1
11:26 19.4 15.3 77 1031.2 4.5 NW 5.4 0.0 0.1
11:28 19.4 15.1 76 1031.1 4.5 SW 5.4 0.0 0.1
11:29 19.4 15.1 76 1031.0 4.5 N 5.4 0.0 0.1
11:30 19.5 15.2 76 1031.1 4.5 NE 5.4 0.0 0.1
11:40 19.9 15.4 75 1031.3 4.5 N 6.9 0.0 0.1
12:21 20.7 15.3 71 1031.4 4.5 W 4.5 0.0 0.1
12:25 20.9 15.5 71 1031.2 4.5 SW 6.9 0.0 0.1
12:27 20.8 15.4 71 1031.2 4.5 NE 6.9 0.0 0.1
12:28 20.8 15.4 71 1031.2 4.5 NE 6.9 0.0 0.1
12:33 20.7 15.3 71 1031.2 4.5 NW 6.9 0.0 0.1
12:46 20.6 15.0 70 1031.1 4.5 NW 6.9 0.0 0.1
12:49 20.4 14.8 70 1031.2 4.5 N 6.9 0.0 0.1
12:52 20.3 14.9 71 1031.3 4.5 N 6.0 0.0 0.1
12:53 20.3 14.9 71 1031.0 4.5 NW 6.0 0.0 0.1
12:57 20.4 15.0 71 1031.2 4.5 N 7.6 0.0 0.1
13:09 20.4 15.0 71 1031.0 4.5 N 6.9 0.0 0.1
13:13 20.1 14.5 70 1031.1 4.5 NE 6.9 0.0 0.1
13:15 20.1 14.5 70 1031.1 4.5 N 6.9 0.0 0.1
13:20 20.0 14.6 71 1031.0 4.5 N 6.9 0.0 0.1
13:21 20.1 14.7 71 1030.9 4.5 N 6.9 0.0 0.1
13:24 20.2 15.0 72 1031.2 4.5 W 6.0 0.0 0.1
13:28 20.7 15.3 71 1031.1 4.5 N 5.4 0.0 0.1
13:29 20.8 15.4 71 1031.3 4.5 NW 5.4 0.0 0.1
13:37 20.9 15.2 70 1031.1 4.5 N 6.9 0.0 0.1
13:41 20.7 14.8 69 1031.0 4.5 N 6.9 0.0 0.1
14:00 20.2 15.0 72 1031.3 4.5 W 6.0 0.0 0.1
14:01 20.2 15.0 72 1031.1 4.5 W 5.4 0.0 0.1
14:02 20.2 15.0 72 1031.1 4.5 W 5.4 0.0 0.1
14:03 20.2 15.0 72 1031.1 4.5 W 5.4 0.0 0.1
14:07 21.1 15.4 70 1031.1 4.5 NW 6.9 0.0 0.1
14:08 21.1 15.4 70 1031.3 4.5 SW 6.9 0.0 0.1
14:15 21.7 16.0 70 1031.1 4.5 N 6.9 0.0 0.1
14:21 21.8 15.9 69 1031.1 4.5 NE 5.4 0.0 0.1
14:23 22.1 15.7 67 1031.0 4.5 NNE 5.4 0.0 0.1
14:33 21.2 14.4 65 1030.8 4.5 W 6.0 0.0 0.1
14:38 20.7 14.6 68 1030.9 4.5 NE 5.4 0.0 0.1
14:39 20.7 14.6 68 1030.9 4.5 NE 5.4 0.0 0.1
15:21 20.7 15.7 73 1030.7 4.5 NW 7.6 0.0 0.1
15:26 21.0 15.6 71 1030.6 4.5 NW 7.6 0.0 0.1
15:27 21.0 15.6 71 1030.6 4.5 N 7.6 0.0 0.1
15:31 21.2 15.5 70 1030.5 4.5 N 7.6 0.0 0.1
15:39 21.3 15.4 69 1030.6 4.5 NW 8.3 0.0 0.1
15:41 21.4 15.5 69 1030.6 4.5 NW 8.3 0.0 0.1
15:43 21.6 15.7 69 1030.7 4.5 N 8.3 0.0 0.1
15:44 21.6 15.7 69 1030.7 4.5 N 8.3 0.0 0.1
15:47 21.8 15.9 69 1030.4 4.5 N 8.3 0.0 0.1
15:48 21.8 15.9 69 1030.6 4.5 N 7.6 0.0 0.1
16:08 21.9 14.8 64 1030.6 4.5 NE 8.3 0.0 0.1
16:11 22.0 14.9 64 1030.5 4.5 SW 8.3 0.0 0.1
16:20 21.5 14.7 65 1030.5 4.5 N 6.9 0.0 0.1
16:21 21.5 14.7 65 1030.6 4.5 N 6.9 0.0 0.1
16:29 21.6 15.2 67 1030.7 4.5 SW 6.9 0.0 0.1
16:34 21.5 15.6 69 1030.4 4.5 NW 6.9 0.0 0.1
16:35 21.6 15.7 69 1030.7 4.5 N 6.9 0.0 0.1
16:45 21.3 14.7 66 1030.6 4.5 NW 9.2 0.0 0.1
16:46 21.2 15.1 68 1030.6 4.5 NE 9.2 0.0 0.1
16:47 21.2 15.1 68 1030.7 4.5 NE 9.2 0.0 0.1
16:54 21.0 15.1 69 1030.7 4.5 NW 7.6 0.0 0.1
16:59 21.1 15.2 69 1030.6 4.5 N 6.9 0.0 0.1
17:00 21.1 15.2 69 1030.8 4.5 N 6.9 0.0 0.1
17:01 21.1 15.2 69 1030.8 4.5 N 6.9 0.0 0.1
17:02 21.1 15.2 69 1030.6 4.5 N 6.9 0.0 0.1
17:03 21.1 15.2 69 1030.6 4.5 N 6.9 0.0 0.1
17:04 21.1 15.2 69 1030.9 4.5 N 6.9 0.0 0.1
17:05 21.1 15.2 69 1030.7 4.5 N 6.9 0.0 0.1
17:14 20.7 14.6 68 1030.6 4.5 N 7.6 0.0 0.1
17:15 20.7 14.6 68 1030.5 4.5 N 7.6 0.0 0.1
17:18 20.6 14.7 69 1030.6 4.5 SW 7.6 0.0 0.1
17:20 20.5 14.6 69 1030.7 4.5 E 7.6 0.0 0.1
17:21 20.5 14.6 69 1030.4 4.5 SW 7.6 0.0 0.1
17:29 20.4 14.5 69 1030.4 4.5 N 6.9 0.0 0.1
17:33 20.3 14.7 70 1030.6 4.5 N 6.9 0.0 0.1
17:38 20.2 14.8 71 1030.5 4.5 N 6.9 0.0 0.1
17:49 19.8 14.2 70 1030.4 4.5 N 6.9 0.0 0.1
17:50 19.8 14.4 71 1030.1 4.5 SW 6.9 0.0 0.1
17:51 19.7 14.3 71 1030.3 4.5 W 6.9 0.0 0.1
17:59 19.4 14.0 71 1030.4 4.5 W 6.9 0.0 0.1
18:00 19.4 14.0 71 1030.4 4.5 W 6.9 0.0 0.1
18:01 19.4 14.0 71 1030.5 4.5 W 6.9 0.0 0.1
18:02 19.4 14.0 71 1030.3 4.5 W 6.9 0.0 0.1
18:03 19.4 14.0 71 1030.3 4.5 W 6.9 0.0 0.1
18:05 19.4 14.2 72 1030.4 4.5 NNE 6.9 0.0 0.1
18:11 19.5 14.5 73 1030.4 4.5 NW 5.4 0.0 0.1
18:12 19.5 14.5 73 1030.1 4.5 NW 5.4 0.0 0.1
18:14 19.3 14.4 73 1030.5 4.5 NW 5.4 0.0 0.1
18:23 18.9 14.2 74 1030.6 4.5 SW 4.5 0.0 0.1
18:24 18.8 14.1 74 1030.5 4.5 N 4.5 0.0 0.1
18:26 18.7 13.8 73 1030.7 4.5 NW 4.5 0.0 0.1
18:27 18.6 13.7 73 1030.6 4.5 N 4.5 0.0 0.1
18:28 18.6 13.7 73 1030.6 4.5 NW 4.5 0.0 0.1
18:29 18.5 13.8 74 1030.5 4.5 N 4.5 0.0 0.1
18:32 18.3 13.6 74 1030.4 4.5 NE 5.4 0.0 0.1
18:40 17.9 13.4 75 1030.4 4.5 N 6.9 0.0 0.1
18:42 17.8 13.3 75 1030.4 4.5 NE 6.9 0.0 0.1
18:46 17.6 13.3 76 1030.4 4.5 N 6.9 0.0 0.1
18:53 17.4 13.9 80 1030.5 4.5 N 8.3 0.0 0.1
18:55 17.3 13.8 80 1030.5 4.5 N 8.3 0.0 0.1
18:56 17.3 13.8 80 1030.5 4.5 N 8.3 0.0 0.1
18:58 17.2 13.7 80 1030.3 4.5 NW 8.3 0.0 0.1
18:59 17.2 13.9 81 1030.3 4.5 N 8.3 0.0 0.1
19:04 17.1 13.8 81 1030.4 4.5 NE 6.9 0.0 0.1
19:05 17.0 13.7 81 1030.5 4.5 N 5.4 0.0 0.1
19:08 16.9 13.6 81 1030.4 4.5 NE 6.0 0.0 0.1
19:09 16.9 13.6 81 1030.4 4.5 N 6.0 0.0 0.1
19:13 16.8 13.7 82 1030.4 4.5 N 6.0 0.0 0.1
20:23 15.1 12.8 86 1030.6 4.5 NW 4.5 0.0 0.1
20:24 15.1 12.8 86 1030.7 4.5 N 4.5 0.0 0.1
21:46 14.4 12.8 90 1030.8 4.5 E 4.5 0.0 0.1
21:47 14.4 12.8 90 1030.8 4.5 NE 4.5 0.0 0.1
21:50 14.4 12.8 90 1030.7 4.5 NE 4.5 0.0 0.1
08:59 14.5 14.4 99 1030.5 5.4 WSW 5.4 0.0 0.1
09:01 14.5 14.4 99 1030.6 5.4 WSW 5.4 0.0 0.1
09:02 14.5 14.4 99 1030.5 5.4 WSW 5.4 0.0 0.1
09:03 14.5 14.4 99 1030.4 5.4 WSW 5.4 0.0 0.1
09:04 14.5 14.4 99 1030.3 5.4 WSW 5.4 0.0 0.1
09:05 14.5 14.4 99 1030.3 5.4 WSW 5.4 0.0 0.1
09:06 14.5 14.4 99 1030.5 5.4 WSW 5.4 0.0 0.1
09:41 14.8 14.7 99 1030.6 5.4 N 6.0 0.0 0.1
09:44 14.9 14.8 99 1030.9 5.4 NE 6.0 0.0 0.1
09:56 15.2 15.2 100 1030.7 5.4 NE 6.0 0.0 0.1
10:00 15.3 15.3 100 1030.7 5.4 NNE 5.4 0.0 0.1
10:01 15.4 15.4 100 1030.7 5.4 N 5.4 0.0 0.1
10:08 15.5 15.5 100 1030.8 5.4 NE 5.4 0.0 0.1
10:11 15.6 15.6 100 1030.7 5.4 NE 5.4 0.0 0.1
10:21 16.0 15.9 99 1030.6 5.4 NE 5.4 0.0 0.1
10:37 16.5 16.0 97 1031.1 5.4 NW 6.0 0.0 0.1
10:42 16.7 16.1 96 1030.9 5.4 SE 6.9 0.0 0.1
10:46 17.0 16.2 95 1031.1 5.4 NE 6.9 0.0 0.1
10:59 18.1 15.2 83 1031.1 5.4 N 7.6 0.0 0.1
11:00 18.1 15.2 83 1031.1 5.4 N 7.6 0.0 0.1
11:01 18.1 15.2 83 1031.1 5.4 N 7.6 0.0 0.1
11:20 19.1 15.2 78 1031.2 5.4 NE 6.0 0.0 0.1
11:22 19.2 15.1 77 1031.2 5.4 N 5.4 0.0 0.1
12:06 20.2 14.8 71 1031.3 5.4 NNE 6.0 0.0 0.1
12:07 20.2 14.8 71 1031.3 5.4 NE 6.0 0.0 0.1
12:26 20.9 15.5 71 1031.4 5.4 N 6.9 0.0 0.1
12:55 20.4 15.0 71 1031.1 5.4 N 7.6 0.0 0.1
12:56 20.4 15.0 71 1030.9 5.4 W 7.6 0.0 0.1
13:17 20.0 14.4 70 1031.1 5.4 N 6.9 0.0 0.1
13:18 20.0 14.6 71 1031.0 5.4 NW 6.9 0.0 0.1
13:22 20.1 14.9 72 1031.0 5.4 N 6.9 0.0 0.1
13:23 20.2 15.0 72 1031.1 5.4 NW 6.0 0.0 0.1
13:26 20.5 15.5 73 1031.1 5.4 N 5.4 0.0 0.1
13:27 20.6 15.4 72 1031.1 5.4 N 5.4 0.0 0.1
13:36 20.9 15.2 70 1031.2 5.4 W 6.9 0.0 0.1
13:38 20.9 15.2 70 1031.0 5.4 NW 6.9 0.0 0.1
13:39 20.9 15.2 70 1031.0 5.4 NE 6.9 0.0 0.1
13:45 20.3 14.7 70 1031.3 5.4 NE 6.0 0.0 0.1
13:46 20.2 14.6 70 1031.1 5.4 NW 6.0 0.0 0.1
13:47 20.1 14.5 70 1031.1 5.4 NW 6.0 0.0 0.1
13:59 20.2 15.0 72 1031.1 5.4 N 6.0 0.0 0.1
14:17 21.7 15.6 68 1031.1 5.4 NE 5.4 0.0 0.1
14:22 22.0 16.1 69 1031.1 5.4 NW 5.4 0.0 0.1
14:37 20.8 14.2 66 1030.9 5.4 E 5.4 0.0 0.1
14:49 21.2 15.3 69 1030.6 5.4 N 6.0 0.0 0.1
14:54 21.0 15.1 69 1030.7 5.4 N 5.4 0.0 0.1
14:57 20.8 14.9 69 1030.8 5.4 N 5.4 0.0 0.1
15:05 20.3 14.4 69 1030.8 5.4 N 6.9 0.0 0.1
15:12 19.7 14.3 71 1030.8 5.4 NW 7.6 0.0 0.1
15:13 19.7 14.3 71 1030.7 5.4 N 7.6 0.0 0.1
15:14 19.8 14.6 72 1030.7 5.4 N 7.6 0.0 0.1
15:16 19.9 14.9 73 1030.8 5.4 NW 7.6 0.0 0.1
15:20 20.6 15.6 73 1030.9 5.4 E 7.6 0.0 0.1
15:24 20.8 15.4 71 1030.8 5.4 NW 7.6 0.0 0.1
15:25 20.8 15.4 71 1030.8 5.4 NW 7.6 0.0 0.1
15:40 21.4 15.5 69 1030.7 5.4 N 8.3 0.0 0.1
15:52 21.8 15.4 67 1030.7 5.4 N 7.6 0.0 0.1
15:54 21.9 15.3 66 1030.6 5.4 NW 7.6 0.0 0.1
15:56 21.9 15.3 66 1030.7 5.4 NW 8.3 0.0 0.1
15:57 21.9 15.3 66 1030.5 5.4 N 8.3 0.0 0.1
16:15 21.6 14.5 64 1030.5 5.4 N 8.3 0.0 0.1
16:16 21.6 14.8 65 1030.5 5.4 W 8.3 0.0 0.1
16:22 21.6 15.5 68 1030.6 5.4 W 6.9 0.0 0.1
16:23 21.6 15.5 68 1030.6 5.4 W 6.9 0.0 0.1
16:30 21.6 15.2 67 1030.8 5.4 N 6.9 0.0 0.1
16:32 21.5 14.9 66 1030.6 5.4 N 6.9 0.0 0.1
16:42 21.3 14.7 66 1030.7 5.4 NE 9.2 0.0 0.1
16:43 21.3 14.7 66 1030.8 5.4 W 9.2 0.0 0.1
16:44 21.3 14.7 66 1030.7 5.4 NE 9.2 0.0 0.1
16:51 21.1 15.0 68 1030.7 5.4 E 7.6 0.0 0.1
16:52 21.0 15.1 69 1030.7 5.4 N 7.6 0.0 0.1
16:53 21.0 15.1 69 1030.4 5.4 N 7.6 0.0 0.1
17:08 21.0 15.1 69 1030.7 5.4 E 6.9 0.0 0.1
17:23 20.5 14.6 69 1030.4 5.4 N 7.6 0.0 0.1
17:31 20.3 14.7 70 1030.2 5.4 N 6.9 0.0 0.1
17:32 20.3 14.7 70 1030.6 5.4 N 6.9 0.0 0.1
17:34 20.2 14.8 71 1030.5 5.4 N 6.9 0.0 0.1
17:35 20.2 14.8 71 1030.6 5.4 N 6.9 0.0 0.1
17:41 20.1 14.7 71 1030.5 5.4 NW 5.4 0.0 0.1
17:46 19.9 14.3 70 1030.5 5.4 NW 6.9 0.0 0.1
17:54 19.6 14.2 71 1030.5 5.4 W 6.9 0.0 0.1
17:57 19.5 14.1 71 1030.5 5.4 N 6.9 0.0 0.1
18:06 19.4 14.4 73 1030.6 5.4 E 6.9 0.0 0.1
18:30 18.4 13.7 74 1030.5 5.4 NE 5.4 0.0 0.1
18:31 18.3 13.6 74 1030.5 5.4 NW 5.4 0.0 0.1
18:34 18.2 13.5 74 1030.4 5.4 N 5.4 0.0 0.1
18:35 18.1 13.4 74 1030.5 5.4 N 5.4 0.0 0.1
18:36 18.1 13.4 74 1030.5 5.4 E 5.4 0.0 0.1
18:44 17.7 13.2 75 1030.3 5.4 NE 6.9 0.0 0.1
18:45 17.7 13.2 75 1030.5 5.4 N 6.9 0.0 0.1
19:03 17.1 13.8 81 1030.6 5.4 NW 6.9 0.0 0.1
09:21 14.8 14.7 99 1030.4 6.0 NE 6.0 0.0 0.1
09:40 14.8 14.7 99 1030.8 6.0 NE 6.0 0.0 0.1
09:47 15.0 15.0 100 1030.7 6.0 N 6.0 0.0 0.1
09:48 15.0 15.0 100 1030.7 6.0 N 6.0 0.0 0.1
10:26 16.2 16.1 99 1030.9 6.0 N 6.0 0.0 0.1
10:27 16.2 16.1 99 1030.8 6.0 N 6.0 0.0 0.1
10:32 16.4 16.1 98 1030.9 6.0 NE 6.0 0.0 0.1
11:05 18.3 15.0 81 1031.2 6.0 N 6.0 0.0 0.1
11:10 18.7 15.2 80 1031.1 6.0 E 6.9 0.0 0.1
11:41 19.9 15.4 75 1031.2 6.0 NE 6.9 0.0 0.1
11:57 19.7 14.9 74 1031.2 6.0 SW 6.0 0.0 0.1
11:58 19.7 14.9 74 1031.4 6.0 NE 6.0 0.0 0.1
12:09 20.1 14.7 71 1031.2 6.0 N 6.0 0.0 0.1
12:48 20.6 15.0 70 1031.2 6.0 W 6.9 0.0 0.1
13:11 20.2 14.6 70 1031.0 6.0 N 6.9 0.0 0.1
13:14 20.1 14.5 70 1030.9 6.0 N 6.9 0.0 0.1
13:49 20.0 14.4 70 1031.2 6.0 NE 6.0 0.0 0.1
14:26 22.0 15.1 65 1031.0 6.0 N 6.0 0.0 0.1
14:40 20.7 14.6 68 1030.9 6.0 N 6.0 0.0 0.1
15:09 19.9 14.3 70 1030.8 6.0 N 7.6 0.0 0.1
15:11 19.7 14.1 70 1030.9 6.0 N 7.6 0.0 0.1
15:15 19.8 14.6 72 1030.6 6.0 E 7.6 0.0 0.1
15:22 20.7 15.5 72 1030.7 6.0 N 7.6 0.0 0.1
15:28 21.1 15.7 71 1030.7 6.0 NE 7.6 0.0 0.1
15:29 21.2 15.5 70 1030.6 6.0 NE 7.6 0.0 0.1
15:30 21.2 15.5 70 1030.5 6.0 N 7.6 0.0 0.1
15:35 21.3 15.4 69 1030.6 6.0 NW 8.3 0.0 0.1
15:42 21.5 15.6 69 1030.6 6.0 N 8.3 0.0 0.1
15:46 21.7 15.8 69 1030.6 6.0 NE 8.3 0.0 0.1
15:53 21.8 15.4 67 1030.6 6.0 N 7.6 0.0 0.1
16:19 21.5 14.7 65 1030.7 6.0 W 6.9 0.0 0.1
16:24 21.6 15.2 67 1030.5 6.0 NW 6.9 0.0 0.1
16:25 21.7 15.1 66 1030.6 6.0 NW 6.9 0.0 0.1
16:26 21.6 14.8 65 1030.6 6.0 NW 6.9 0.0 0.1
16:27 21.6 14.8 65 1030.5 6.0 N 6.9 0.0 0.1
16:33 21.5 15.4 68 1030.5 6.0 W 6.9 0.0 0.1
16:50 21.2 14.8 67 1030.6 6.0 N 7.6 0.0 0.1
17:06 21.1 15.2 69 1030.7 6.0 NNW 6.9 0.0 0.1
17:07 21.0 15.1 69 1030.8 6.0 NE 6.9 0.0 0.1
17:26 20.5 14.6 69 1030.5 6.0 NW 6.9 0.0 0.1
17:27 20.5 14.6 69 1030.5 6.0 NE 6.9 0.0 0.1
17:28 20.5 14.6 69 1030.5 6.0 NE 6.9 0.0 0.1
17:47 19.9 14.3 70 1030.5 6.0 N 6.9 0.0 0.1
17:48 19.8 14.2 70 1030.2 6.0 NE 6.9 0.0 0.1
18:48 17.6 13.3 76 1030.3 6.0 SW 6.0 0.0 0.1
18:51 17.5 13.4 77 1030.3 6.0 NE 8.3 0.0 0.1
09:24 14.7 14.6 99 1030.6 6.9 N 6.9 0.0 0.1
10:38 16.6 16.1 97 1031.0 6.9 NW 6.9 0.0 0.1
11:09 18.7 15.2 80 1031.1 6.9 NW 6.9 0.0 0.1
12:23 20.9 15.5 71 1031.4 6.9 SW 6.9 0.0 0.1
12:39 20.6 15.2 71 1031.1 6.9 NW 6.9 0.0 0.1
13:00 20.4 15.0 71 1031.2 6.9 NW 7.6 0.0 0.1
13:01 20.4 15.0 71 1031.3 6.9 NW 7.6 0.0 0.1
13:02 20.4 15.0 71 1031.0 6.9 NW 7.6 0.0 0.1
13:03 20.3 14.9 71 1031.2 6.9 N 7.6 0.0 0.1
13:12 20.2 14.6 70 1031.2 6.9 N 6.9 0.0 0.1
14:05 21.0 15.6 71 1030.9 6.9 NW 6.9 0.0 0.1
14:06 21.0 15.6 71 1031.0 6.9 N 6.9 0.0 0.1
15:03 20.4 14.5 69 1030.7 6.9 NW 6.9 0.0 0.1
15:32 21.2 15.5 70 1030.6 6.9 N 7.6 0.0 0.1
15:45 21.6 15.7 69 1030.5 6.9 N 8.3 0.0 0.1
16:06 21.9 14.8 64 1030.6 6.9 SW 8.3 0.0 0.1
16:07 21.9 14.8 64 1030.5 6.9 NW 8.3 0.0 0.1
16:10 22.0 14.9 64 1030.7 6.9 N 8.3 0.0 0.1
16:12 22.0 14.9 64 1030.8 6.9 NW 8.3 0.0 0.1
16:13 21.9 14.8 64 1030.7 6.9 N 8.3 0.0 0.1
16:14 21.7 14.6 64 1030.6 6.9 NW 8.3 0.0 0.1
16:18 21.5 14.7 65 1030.6 6.9 W 8.3 0.0 0.1
16:31 21.6 15.0 66 1030.3 6.9 N 6.9 0.0 0.1
16:41 21.3 14.7 66 1030.6 6.9 N 9.2 0.0 0.1
16:58 21.1 15.2 69 1030.5 6.9 N 6.9 0.0 0.1
17:17 20.7 14.8 69 1030.5 6.9 NW 7.6 0.0 0.1
17:25 20.5 14.6 69 1030.6 6.9 NW 6.9 0.0 0.1
17:30 20.3 14.4 69 1030.4 6.9 NW 6.9 0.0 0.1
17:42 20.1 14.7 71 1030.7 6.9 SE 6.9 0.0 0.1
17:43 20.1 14.7 71 1030.5 6.9 SE 6.9 0.0 0.1
17:44 20.1 14.7 71 1030.5 6.9 SE 6.9 0.0 0.1
17:45 20.1 14.7 71 1030.5 6.9 SE 6.9 0.0 0.1
17:52 19.7 14.3 71 1030.4 6.9 NW 6.9 0.0 0.1
17:53 19.7 14.3 71 1030.3 6.9 W 6.9 0.0 0.1
17:55 19.6 14.2 71 1030.3 6.9 N 6.9 0.0 0.1
17:56 19.6 14.2 71 1030.4 6.9 NW 6.9 0.0 0.1
18:37 18.0 13.3 74 1030.5 6.9 N 6.9 0.0 0.1
18:38 18.0 13.3 74 1030.4 6.9 NE 6.9 0.0 0.1
18:54 17.3 13.8 80 1030.3 6.9 NW 8.3 0.0 0.1
10:53 17.6 15.6 88 1031.3 7.6 NW 7.6 0.0 0.1
15:07 20.0 14.4 70 1030.8 7.6 E 7.6 0.0 0.1
15:10 19.8 14.2 70 1030.7 7.6 NE 7.6 0.0 0.1
15:17 20.0 15.0 73 1030.8 7.6 E 7.6 0.0 0.1
15:23 20.7 15.3 71 1030.7 7.6 SW 7.6 0.0 0.1
15:33 21.3 15.4 69 1030.7 7.6 NW 7.6 0.0 0.1
15:34 21.3 15.4 69 1030.7 7.6 NW 7.6 0.0 0.1
15:36 21.4 15.5 69 1030.5 7.6 E 8.3 0.0 0.1
15:49 21.9 15.7 68 1030.5 7.6 SW 7.6 0.0 0.1
15:50 21.9 15.5 67 1030.5 7.6 N 7.6 0.0 0.1
15:51 21.8 15.4 67 1030.5 7.6 NW 7.6 0.0 0.1
16:38 21.5 15.1 67 1030.6 7.6 N 9.2 0.0 0.1
16:39 21.4 14.8 66 1030.6 7.6 NW 9.2 0.0 0.1
16:40 21.4 14.8 66 1030.6 7.6 NW 9.2 0.0 0.1
17:12 20.9 14.6 67 1030.6 7.6 NE 7.6 0.0 0.1
17:13 20.9 14.6 67 1030.7 7.6 NE 7.6 0.0 0.1
18:49 17.5 13.4 77 1030.5 7.6 N 7.6 0.0 0.1
15:37 21.4 15.5 69 1030.5 8.3 NW 8.3 0.0 0.1
15:55 21.9 15.3 66 1030.6 8.3 E 8.3 0.0 0.1
16:09 21.9 14.8 64 1030.6 8.3 NE 8.3 0.0 0.1
16:36 21.6 15.7 69 1030.6 9.2 SE 9.2 0.0 0.1

 

 

UK - WEATHER STATION TOPSITES - UK World Weather Websites

Copyright © Carnkie Weather 2009 - 2021.